Time,TemperatureF,DewpointF,PressureIn,WindDirection,WindDirectionDegrees,WindSpeedMPH,WindSpeedGustMPH,Humidity,HourlyPrecipIn,Conditions,Clouds,dailyrainin,SoftwareType,DateUTC
2013-03-19 00:00:00,37.9,33.6,30.24,NE,45,0.0,0.0,85,0.00,,,0.00,WUHU21636XXSP,2013-03-19 07:00:00,
2013-03-19 00:03:00,37.8,33.5,30.24,NE,45,0.0,0.0,85,0.00,,,0.00,WUHU21636XXSP,2013-03-19 07:03:00,
2013-03-19 00:05:00,37.8,33.5,30.24,NE,45,0.0,0.0,85,0.00,,,0.00,WUHU21636XXSP,2013-03-19 07:05:00,
2013-03-19 00:08:00,37.8,33.5,30.24,NE,45,0.0,0.0,85,0.00,,,0.00,WUHU21636XXSP,2013-03-19 07:08:00,
2013-03-19 00:10:00,37.8,33.5,30.24,NE,45,0.0,0.0,85,0.00,,,0.00,WUHU21636XXSP,2013-03-19 07:10:00,
2013-03-19 00:11:00,37.8,33.5,30.24,NE,45,0.0,0.0,85,0.00,,,0.00,WUHU21636XXSP,2013-03-19 07:11:00,
2013-03-19 00:13:00,37.8,33.5,30.24,NE,45,0.0,0.0,85,0.00,,,0.00,WUHU21636XXSP,2013-03-19 07:13:00,
2013-03-19 00:14:00,37.8,33.5,30.24,NE,45,0.0,0.0,85,0.00,,,0.00,WUHU21636XXSP,2013-03-19 07:14:00,
2013-03-19 00:15:00,37.6,33.3,30.24,NE,45,0.0,0.0,85,0.00,,,0.00,WUHU21636XXSP,2013-03-19 07:15:00,
2013-03-19 00:16:00,37.6,33.3,30.24,NE,45,0.0,0.0,85,0.00,,,0.00,WUHU21636XXSP,2013-03-19 07:16:00,
2013-03-19 00:18:00,37.8,33.8,30.24,NE,45,0.0,0.0,86,0.00,,,0.00,WUHU21636XXSP,2013-03-19 07:18:00,
2013-03-19 00:19:00,37.6,33.6,30.24,NE,45,0.0,0.0,86,0.00,,,0.00,WUHU21636XXSP,2013-03-19 07:19:00,
2013-03-19 00:20:00,37.6,33.6,30.24,NE,45,0.0,0.0,86,0.00,,,0.00,WUHU21636XXSP,2013-03-19 07:20:00,
2013-03-19 00:22:00,37.6,33.6,30.24,NE,45,0.0,0.0,86,0.00,,,0.00,WUHU21636XXSP,2013-03-19 07:22:00,
2013-03-19 00:23:00,37.6,33.3,30.24,NE,45,0.0,0.0,85,0.00,,,0.00,WUHU21636XXSP,2013-03-19 07:23:00,
2013-03-19 00:24:00,37.6,33.3,30.24,NE,45,0.0,0.0,85,0.00,,,0.00,WUHU21636XXSP,2013-03-19 07:24:00,
2013-03-19 00:25:00,37.6,33.3,30.24,NE,45,0.0,0.0,85,0.00,,,0.00,WUHU21636XXSP,2013-03-19 07:25:00,
2013-03-19 00:27:00,37.6,33.6,30.24,NE,45,0.0,0.0,86,0.00,,,0.00,WUHU21636XXSP,2013-03-19 07:27:00,
2013-03-19 00:28:00,37.6,33.6,30.24,NE,45,0.0,0.0,86,0.00,,,0.00,WUHU21636XXSP,2013-03-19 07:28:00,
2013-03-19 00:29:00,37.6,33.6,30.24,NE,45,0.0,0.0,86,0.00,,,0.00,WUHU21636XXSP,2013-03-19 07:29:00,
2013-03-19 00:30:00,37.6,33.6,30.24,NE,45,0.0,0.0,86,0.00,,,0.00,WUHU21636XXSP,2013-03-19 07:30:00,
2013-03-19 00:32:00,37.6,33.6,30.24,NE,45,0.0,0.0,86,0.00,,,0.00,WUHU21636XXSP,2013-03-19 07:32:00,
2013-03-19 00:33:00,37.6,33.6,30.24,NE,45,0.0,0.0,86,0.00,,,0.00,WUHU21636XXSP,2013-03-19 07:33:00,
2013-03-19 00:35:00,37.6,33.6,30.24,NE,45,0.0,0.0,86,0.00,,,0.00,WUHU21636XXSP,2013-03-19 07:35:00,
2013-03-19 00:37:00,37.2,33.5,30.24,NE,45,0.0,0.0,87,0.00,,,0.00,WUHU21636XXSP,2013-03-19 07:37:00,
2013-03-19 00:38:00,37.2,33.5,30.24,NE,45,0.0,0.0,87,0.00,,,0.00,WUHU21636XXSP,2013-03-19 07:38:00,
2013-03-19 00:40:00,37.2,33.5,30.24,NE,45,0.0,0.0,87,0.00,,,0.00,WUHU21636XXSP,2013-03-19 07:40:00,
2013-03-19 00:41:00,37.2,33.5,30.24,NE,45,0.0,0.0,87,0.00,,,0.00,WUHU21636XXSP,2013-03-19 07:41:00,
2013-03-19 00:42:00,37.2,33.5,30.24,NE,45,0.0,0.0,87,0.00,,,0.00,WUHU21636XXSP,2013-03-19 07:42:00,
2013-03-19 00:43:00,37.0,33.3,30.24,NE,45,0.0,0.0,87,0.00,,,0.00,WUHU21636XXSP,2013-03-19 07:43:00,
2013-03-19 00:45:00,37.0,33.3,30.23,NE,45,0.0,0.0,87,0.00,,,0.00,WUHU21636XXSP,2013-03-19 07:45:00,
2013-03-19 00:46:00,37.0,33.3,30.23,NE,45,0.0,0.0,87,0.00,,,0.00,WUHU21636XXSP,2013-03-19 07:46:00,
2013-03-19 00:47:00,37.0,33.3,30.23,NE,45,0.0,0.0,87,0.00,,,0.00,WUHU21636XXSP,2013-03-19 07:47:00,
2013-03-19 00:48:00,37.0,33.3,30.23,NE,45,0.0,0.0,87,0.00,,,0.00,WUHU21636XXSP,2013-03-19 07:48:00,
2013-03-19 00:50:00,37.0,33.3,30.23,NE,45,0.0,0.0,87,0.00,,,0.00,WUHU21636XXSP,2013-03-19 07:50:00,
2013-03-19 00:51:00,37.0,33.3,30.23,NE,45,0.0,0.0,87,0.00,,,0.00,WUHU21636XXSP,2013-03-19 07:51:00,
2013-03-19 00:52:00,37.0,33.3,30.23,NE,45,0.0,0.0,87,0.00,,,0.00,WUHU21636XXSP,2013-03-19 07:52:00,
2013-03-19 00:53:00,36.9,33.2,30.23,NE,45,0.0,0.0,87,0.00,,,0.00,WUHU21636XXSP,2013-03-19 07:53:00,
2013-03-19 00:55:00,36.9,33.2,30.23,NE,45,0.0,0.0,87,0.00,,,0.00,WUHU21636XXSP,2013-03-19 07:55:00,
2013-03-19 00:57:00,36.9,33.5,30.23,NE,45,0.0,0.0,88,0.00,,,0.00,WUHU21636XXSP,2013-03-19 07:57:00,
2013-03-19 00:58:00,36.7,33.3,30.24,NE,45,0.0,0.0,88,0.00,,,0.00,WUHU21636XXSP,2013-03-19 07:58:00,
2013-03-19 01:00:00,36.7,33.3,30.23,NE,45,0.0,0.0,88,0.00,,,0.00,WUHU21636XXSP,2013-03-19 08:00:00,
2013-03-19 01:02:00,36.7,33.3,30.23,NE,45,0.0,0.0,88,0.00,,,0.00,WUHU21636XXSP,2013-03-19 08:02:00,
2013-03-19 01:04:00,36.7,33.3,30.23,NE,45,0.0,0.0,88,0.00,,,0.00,WUHU21636XXSP,2013-03-19 08:04:00,
2013-03-19 01:05:00,36.7,33.3,30.23,NE,45,0.0,0.0,88,0.00,,,0.00,WUHU21636XXSP,2013-03-19 08:05:00,
2013-03-19 01:07:00,36.7,33.3,30.23,NE,45,0.0,0.0,88,0.00,,,0.00,WUHU21636XXSP,2013-03-19 08:07:00,
2013-03-19 01:09:00,36.7,33.3,30.23,NE,45,0.0,0.0,88,0.00,,,0.00,WUHU21636XXSP,2013-03-19 08:09:00,
2013-03-19 01:10:00,36.7,33.3,30.23,NE,45,0.0,0.0,88,0.00,,,0.00,WUHU21636XXSP,2013-03-19 08:10:00,
2013-03-19 01:12:00,36.5,33.1,30.23,NE,45,0.0,0.0,88,0.00,,,0.00,WUHU21636XXSP,2013-03-19 08:12:00,
2013-03-19 01:13:00,36.5,33.1,30.23,NE,45,0.0,0.0,88,0.00,,,0.00,WUHU21636XXSP,2013-03-19 08:13:00,
2013-03-19 01:14:00,36.5,33.1,30.23,NE,45,0.0,0.0,88,0.00,,,0.00,WUHU21636XXSP,2013-03-19 08:14:00,
2013-03-19 01:15:00,36.3,32.9,30.23,NE,45,0.0,0.0,88,0.00,,,0.00,WUHU21636XXSP,2013-03-19 08:15:00,
2013-03-19 01:18:00,36.3,32.9,30.23,NE,45,0.0,0.0,88,0.00,,,0.00,WUHU21636XXSP,2013-03-19 08:18:00,
2013-03-19 01:19:00,36.1,32.7,30.23,NE,45,0.0,0.0,88,0.00,,,0.00,WUHU21636XXSP,2013-03-19 08:19:00,
2013-03-19 01:20:00,36.1,32.7,30.23,NE,45,0.0,0.0,88,0.00,,,0.00,WUHU21636XXSP,2013-03-19 08:20:00,
2013-03-19 01:23:00,36.1,33.0,30.23,NE,45,0.0,0.0,89,0.00,,,0.00,WUHU21636XXSP,2013-03-19 08:23:00,
2013-03-19 01:24:00,36.1,33.0,30.23,NE,45,0.0,0.0,89,0.00,,,0.00,WUHU21636XXSP,2013-03-19 08:24:00,
2013-03-19 01:25:00,36.1,33.0,30.23,NE,45,0.0,0.0,89,0.00,,,0.00,WUHU21636XXSP,2013-03-19 08:25:00,
2013-03-19 01:28:00,36.1,33.0,30.23,NE,45,0.0,0.0,89,0.00,,,0.00,WUHU21636XXSP,2013-03-19 08:28:00,
2013-03-19 01:29:00,36.1,33.0,30.23,NE,45,0.0,0.0,89,0.00,,,0.00,WUHU21636XXSP,2013-03-19 08:29:00,
2013-03-19 01:31:00,36.0,33.2,30.23,NE,45,0.0,0.0,90,0.00,,,0.00,WUHU21636XXSP,2013-03-19 08:31:00,
2013-03-19 01:33:00,36.0,32.9,30.23,NE,45,0.0,0.0,89,0.00,,,0.00,WUHU21636XXSP,2013-03-19 08:33:00,
2013-03-19 01:34:00,36.0,32.9,30.23,NE,45,0.0,0.0,89,0.00,,,0.00,WUHU21636XXSP,2013-03-19 08:34:00,
2013-03-19 01:37:00,35.8,32.7,30.22,NE,45,0.0,0.0,89,0.00,,,0.00,WUHU21636XXSP,2013-03-19 08:37:00,
2013-03-19 01:38:00,35.8,32.7,30.22,NE,45,0.0,0.0,89,0.00,,,0.00,WUHU21636XXSP,2013-03-19 08:38:00,
2013-03-19 01:39:00,35.8,32.7,30.22,NE,45,0.0,0.0,89,0.00,,,0.00,WUHU21636XXSP,2013-03-19 08:39:00,
2013-03-19 01:42:00,35.8,32.7,30.22,NE,45,0.0,0.0,89,0.00,,,0.00,WUHU21636XXSP,2013-03-19 08:42:00,
2013-03-19 01:44:00,35.8,32.7,30.22,NE,45,0.0,0.0,89,0.00,,,0.00,WUHU21636XXSP,2013-03-19 08:44:00,
2013-03-19 01:47:00,35.8,32.7,30.22,NE,45,0.0,0.0,89,0.00,,,0.00,WUHU21636XXSP,2013-03-19 08:47:00,
2013-03-19 01:49:00,35.8,32.7,30.22,NE,45,0.0,0.0,89,0.00,,,0.00,WUHU21636XXSP,2013-03-19 08:49:00,
2013-03-19 01:50:00,35.8,32.7,30.22,NE,45,0.0,0.0,89,0.00,,,0.00,WUHU21636XXSP,2013-03-19 08:50:00,
2013-03-19 01:52:00,35.8,32.7,30.22,NE,45,0.0,0.0,89,0.00,,,0.00,WUHU21636XXSP,2013-03-19 08:52:00,
2013-03-19 01:54:00,35.6,32.5,30.22,NE,45,0.0,0.0,89,0.00,,,0.00,WUHU21636XXSP,2013-03-19 08:54:00,
2013-03-19 01:55:00,35.6,32.5,30.22,NE,45,0.0,0.0,89,0.00,,,0.00,WUHU21636XXSP,2013-03-19 08:55:00,
2013-03-19 01:57:00,35.6,32.8,30.22,NE,45,0.0,0.0,90,0.00,,,0.00,WUHU21636XXSP,2013-03-19 08:57:00,
2013-03-19 01:59:00,35.6,32.5,30.22,NE,45,0.0,0.0,89,0.00,,,0.00,WUHU21636XXSP,2013-03-19 08:59:00,
2013-03-19 02:00:00,35.6,32.5,30.22,NE,45,0.0,0.0,89,0.00,,,0.00,WUHU21636XXSP,2013-03-19 09:00:00,
2013-03-19 02:02:00,35.4,32.9,30.22,NE,45,0.0,0.0,91,0.00,,,0.00,WUHU21636XXSP,2013-03-19 09:02:00,
2013-03-19 02:04:00,35.4,32.9,30.22,NE,45,0.0,0.0,91,0.00,,,0.00,WUHU21636XXSP,2013-03-19 09:04:00,
2013-03-19 02:05:00,35.4,32.9,30.22,NE,45,0.0,0.0,91,0.00,,,0.00,WUHU21636XXSP,2013-03-19 09:05:00,
2013-03-19 02:07:00,35.6,33.1,30.22,NE,45,0.0,0.0,91,0.00,,,0.00,WUHU21636XXSP,2013-03-19 09:07:00,
2013-03-19 02:09:00,35.6,33.1,30.22,NE,45,0.0,0.0,91,0.00,,,0.00,WUHU21636XXSP,2013-03-19 09:09:00,
2013-03-19 02:10:00,35.6,33.1,30.22,NE,45,0.0,0.0,91,0.00,,,0.00,WUHU21636XXSP,2013-03-19 09:10:00,
2013-03-19 02:12:00,35.6,33.1,30.22,NE,45,0.0,0.0,91,0.00,,,0.00,WUHU21636XXSP,2013-03-19 09:12:00,
2013-03-19 02:14:00,35.8,33.3,30.22,NE,45,0.0,0.0,91,0.00,,,0.00,WUHU21636XXSP,2013-03-19 09:14:00,
2013-03-19 02:15:00,35.8,33.6,30.22,NE,45,0.0,0.0,92,0.00,,,0.00,WUHU21636XXSP,2013-03-19 09:15:00,
2013-03-19 02:16:00,35.8,33.6,30.22,NE,45,0.0,0.0,92,0.00,,,0.00,WUHU21636XXSP,2013-03-19 09:16:00,
2013-03-19 02:18:00,35.8,33.6,30.22,NE,45,0.0,0.0,92,0.00,,,0.00,WUHU21636XXSP,2013-03-19 09:18:00,
2013-03-19 02:20:00,36.0,33.8,30.22,NE,45,0.0,0.0,92,0.00,,,0.00,WUHU21636XXSP,2013-03-19 09:20:00,
2013-03-19 02:22:00,35.8,33.6,30.22,NE,45,0.0,0.0,92,0.00,,,0.00,WUHU21636XXSP,2013-03-19 09:22:00,
2013-03-19 02:23:00,35.8,33.6,30.22,NE,45,0.0,0.0,92,0.00,,,0.00,WUHU21636XXSP,2013-03-19 09:23:00,
2013-03-19 02:25:00,35.8,33.6,30.22,NE,45,0.0,0.0,92,0.00,,,0.00,WUHU21636XXSP,2013-03-19 09:25:00,
2013-03-19 02:27:00,35.8,33.6,30.22,NE,45,0.0,0.0,92,0.00,,,0.00,WUHU21636XXSP,2013-03-19 09:27:00,
2013-03-19 02:28:00,35.8,33.6,30.22,NE,45,0.0,0.0,92,0.00,,,0.00,WUHU21636XXSP,2013-03-19 09:28:00,
2013-03-19 02:30:00,35.8,33.6,30.22,NE,45,0.0,0.0,92,0.00,,,0.00,WUHU21636XXSP,2013-03-19 09:30:00,
2013-03-19 02:32:00,35.8,33.6,30.22,NE,45,0.0,0.0,92,0.00,,,0.00,WUHU21636XXSP,2013-03-19 09:32:00,
2013-03-19 02:33:00,35.8,33.6,30.21,NE,45,0.0,0.0,92,0.00,,,0.00,WUHU21636XXSP,2013-03-19 09:33:00,
2013-03-19 02:35:00,35.8,33.6,30.21,NE,45,0.0,0.0,92,0.00,,,0.00,WUHU21636XXSP,2013-03-19 09:35:00,
2013-03-19 02:37:00,35.8,33.6,30.21,NE,45,0.0,0.0,92,0.00,,,0.00,WUHU21636XXSP,2013-03-19 09:37:00,
2013-03-19 02:38:00,35.8,33.6,30.21,NE,45,0.0,0.0,92,0.00,,,0.00,WUHU21636XXSP,2013-03-19 09:38:00,
2013-03-19 02:40:00,35.8,33.6,30.21,NE,45,0.0,0.0,92,0.00,,,0.00,WUHU21636XXSP,2013-03-19 09:40:00,
2013-03-19 02:42:00,35.6,33.4,30.21,NE,45,0.0,0.0,92,0.00,,,0.00,WUHU21636XXSP,2013-03-19 09:42:00,
2013-03-19 02:43:00,35.6,33.4,30.21,NE,45,0.0,0.0,92,0.00,,,0.00,WUHU21636XXSP,2013-03-19 09:43:00,
2013-03-19 02:45:00,35.4,33.2,30.21,NE,45,0.0,0.0,92,0.00,,,0.00,WUHU21636XXSP,2013-03-19 09:45:00,
2013-03-19 02:46:00,35.4,33.2,30.21,NE,45,0.0,0.0,92,0.00,,,0.00,WUHU21636XXSP,2013-03-19 09:46:00,
2013-03-19 02:47:00,35.6,33.4,30.21,NE,45,0.0,0.0,92,0.00,,,0.00,WUHU21636XXSP,2013-03-19 09:47:00,
2013-03-19 02:48:00,35.6,33.4,30.21,NE,45,0.0,0.0,92,0.00,,,0.00,WUHU21636XXSP,2013-03-19 09:48:00,
2013-03-19 02:50:00,35.6,33.4,30.21,NE,45,0.0,0.0,92,0.00,,,0.00,WUHU21636XXSP,2013-03-19 09:50:00,
2013-03-19 02:51:00,35.6,33.4,30.21,NE,45,0.0,0.0,92,0.00,,,0.00,WUHU21636XXSP,2013-03-19 09:51:00,
2013-03-19 02:52:00,35.6,33.4,30.20,NE,45,0.0,0.0,92,0.00,,,0.00,WUHU21636XXSP,2013-03-19 09:52:00,
2013-03-19 02:54:00,35.8,33.6,30.20,NE,45,0.0,0.0,92,0.00,,,0.00,WUHU21636XXSP,2013-03-19 09:54:00,
2013-03-19 02:55:00,35.8,33.6,30.20,NE,45,0.0,0.0,92,0.00,,,0.00,WUHU21636XXSP,2013-03-19 09:55:00,
2013-03-19 02:56:00,35.8,33.6,30.20,NE,45,0.0,0.0,92,0.00,,,0.00,WUHU21636XXSP,2013-03-19 09:56:00,
2013-03-19 02:57:00,35.8,33.6,30.20,NE,45,0.0,0.0,92,0.00,,,0.00,WUHU21636XXSP,2013-03-19 09:57:00,
2013-03-19 02:59:00,35.8,33.6,30.20,NE,45,0.0,0.0,92,0.00,,,0.00,WUHU21636XXSP,2013-03-19 09:59:00,
2013-03-19 03:00:00,35.8,33.6,30.20,NE,45,0.0,0.0,92,0.00,,,0.00,WUHU21636XXSP,2013-03-19 10:00:00,
2013-03-19 03:01:00,35.8,33.6,30.20,NE,45,0.0,0.0,92,0.00,,,0.00,WUHU21636XXSP,2013-03-19 10:01:00,
2013-03-19 03:02:00,35.8,33.6,30.20,NE,45,0.0,0.0,92,0.00,,,0.00,WUHU21636XXSP,2013-03-19 10:02:00,
2013-03-19 03:04:00,35.8,33.6,30.20,NE,45,0.0,0.0,92,0.00,,,0.00,WUHU21636XXSP,2013-03-19 10:04:00,
2013-03-19 03:06:00,35.8,33.6,30.20,NE,45,0.0,0.0,92,0.00,,,0.00,WUHU21636XXSP,2013-03-19 10:06:00,
2013-03-19 03:07:00,35.8,33.6,30.20,NE,45,0.0,0.0,92,0.00,,,0.00,WUHU21636XXSP,2013-03-19 10:07:00,
2013-03-19 03:08:00,35.8,33.6,30.20,NE,45,0.0,0.0,92,0.00,,,0.00,WUHU21636XXSP,2013-03-19 10:08:00,
2013-03-19 03:09:00,36.0,33.8,30.20,NE,45,0.0,0.0,92,0.00,,,0.00,WUHU21636XXSP,2013-03-19 10:09:00,
2013-03-19 03:11:00,36.0,33.8,30.19,NE,45,0.0,0.0,92,0.00,,,0.00,WUHU21636XXSP,2013-03-19 10:11:00,
2013-03-19 03:12:00,36.0,33.8,30.19,NE,45,0.0,0.0,92,0.00,,,0.00,WUHU21636XXSP,2013-03-19 10:12:00,
2013-03-19 03:13:00,36.0,33.8,30.19,NE,45,0.0,0.0,92,0.00,,,0.00,WUHU21636XXSP,2013-03-19 10:13:00,
2013-03-19 03:14:00,36.0,33.8,30.19,NE,45,0.0,0.0,92,0.00,,,0.00,WUHU21636XXSP,2013-03-19 10:14:00,
2013-03-19 03:16:00,36.0,33.8,30.19,NE,45,0.0,0.0,92,0.00,,,0.00,WUHU21636XXSP,2013-03-19 10:16:00,
2013-03-19 03:18:00,36.0,33.8,30.19,NE,45,0.0,0.0,92,0.00,,,0.00,WUHU21636XXSP,2013-03-19 10:18:00,
2013-03-19 03:19:00,36.0,33.8,30.19,NE,45,0.0,0.0,92,0.00,,,0.00,WUHU21636XXSP,2013-03-19 10:19:00,
2013-03-19 03:21:00,36.1,33.9,30.19,NE,45,0.0,0.0,92,0.00,,,0.00,WUHU21636XXSP,2013-03-19 10:21:00,
2013-03-19 03:23:00,36.1,33.9,30.19,NE,45,0.0,0.0,92,0.00,,,0.00,WUHU21636XXSP,2013-03-19 10:23:00,
2013-03-19 03:24:00,36.1,33.9,30.19,NE,45,0.0,0.0,92,0.00,,,0.00,WUHU21636XXSP,2013-03-19 10:24:00,
2013-03-19 03:26:00,36.1,33.9,30.19,NE,45,0.0,0.0,92,0.00,,,0.00,WUHU21636XXSP,2013-03-19 10:26:00,
2013-03-19 03:28:00,36.1,33.9,30.19,NE,45,0.0,0.0,92,0.00,,,0.00,WUHU21636XXSP,2013-03-19 10:28:00,
2013-03-19 03:29:00,36.1,33.9,30.19,NE,45,0.0,0.0,92,0.00,,,0.00,WUHU21636XXSP,2013-03-19 10:29:00,
2013-03-19 03:32:00,36.1,33.9,30.18,NE,45,0.0,0.0,92,0.00,,,0.00,WUHU21636XXSP,2013-03-19 10:32:00,
2013-03-19 03:33:00,36.1,33.9,30.18,NE,45,0.0,0.0,92,0.00,,,0.00,WUHU21636XXSP,2013-03-19 10:33:00,
2013-03-19 03:34:00,36.1,33.9,30.18,NE,45,0.0,0.0,92,0.00,,,0.00,WUHU21636XXSP,2013-03-19 10:34:00,
2013-03-19 03:37:00,36.1,33.6,30.18,NE,45,0.0,0.0,91,0.00,,,0.00,WUHU21636XXSP,2013-03-19 10:37:00,
2013-03-19 03:38:00,36.1,33.6,30.18,NE,45,0.0,0.0,91,0.00,,,0.00,WUHU21636XXSP,2013-03-19 10:38:00,
2013-03-19 03:39:00,36.1,33.6,30.18,NE,45,0.0,0.0,91,0.00,,,0.00,WUHU21636XXSP,2013-03-19 10:39:00,
2013-03-19 03:42:00,36.3,33.8,30.18,NE,45,0.0,0.0,91,0.00,,,0.00,WUHU21636XXSP,2013-03-19 10:42:00,
2013-03-19 03:43:00,36.3,33.8,30.18,NE,45,0.0,0.0,91,0.00,,,0.00,WUHU21636XXSP,2013-03-19 10:43:00,
2013-03-19 03:45:00,36.3,33.8,30.18,NE,45,0.0,0.0,91,0.00,,,0.00,WUHU21636XXSP,2013-03-19 10:45:00,
2013-03-19 03:47:00,36.3,33.8,30.18,NE,45,0.0,0.0,91,0.00,,,0.00,WUHU21636XXSP,2013-03-19 10:47:00,
2013-03-19 03:48:00,36.3,33.8,30.18,NE,45,0.0,0.0,91,0.00,,,0.00,WUHU21636XXSP,2013-03-19 10:48:00,
2013-03-19 03:49:00,36.3,33.8,30.18,NE,45,0.0,0.0,91,0.00,,,0.00,WUHU21636XXSP,2013-03-19 10:49:00,
2013-03-19 03:50:00,36.3,33.8,30.17,NE,45,0.0,0.0,91,0.00,,,0.00,WUHU21636XXSP,2013-03-19 10:50:00,
2013-03-19 03:52:00,36.3,33.8,30.18,NE,45,0.0,0.0,91,0.00,,,0.00,WUHU21636XXSP,2013-03-19 10:52:00,
2013-03-19 03:54:00,36.3,33.8,30.17,NE,45,0.0,0.0,91,0.00,,,0.00,WUHU21636XXSP,2013-03-19 10:54:00,
2013-03-19 03:55:00,36.3,33.8,30.17,NE,45,0.0,0.0,91,0.00,,,0.00,WUHU21636XXSP,2013-03-19 10:55:00,
2013-03-19 03:58:00,36.3,33.8,30.17,NE,45,0.0,0.0,91,0.00,,,0.00,WUHU21636XXSP,2013-03-19 10:58:00,
2013-03-19 03:59:00,36.3,33.8,30.17,NE,45,0.0,0.0,91,0.00,,,0.00,WUHU21636XXSP,2013-03-19 10:59:00,
2013-03-19 04:00:00,36.3,33.8,30.17,NE,45,0.0,0.0,91,0.00,,,0.00,WUHU21636XXSP,2013-03-19 11:00:00,
2013-03-19 04:03:00,36.3,33.8,30.17,NE,45,0.0,0.0,91,0.00,,,0.00,WUHU21636XXSP,2013-03-19 11:03:00,
2013-03-19 04:04:00,36.3,33.8,30.17,NE,45,0.0,0.0,91,0.00,,,0.00,WUHU21636XXSP,2013-03-19 11:04:00,
2013-03-19 04:05:00,36.3,33.8,30.17,NE,45,0.0,0.0,91,0.00,,,0.00,WUHU21636XXSP,2013-03-19 11:05:00,
2013-03-19 04:08:00,36.3,33.8,30.17,NE,45,0.0,0.0,91,0.00,,,0.00,WUHU21636XXSP,2013-03-19 11:08:00,
2013-03-19 04:09:00,36.3,33.8,30.17,NE,45,0.0,0.0,91,0.00,,,0.00,WUHU21636XXSP,2013-03-19 11:09:00,
2013-03-19 04:10:00,36.1,33.6,30.17,NE,45,0.0,0.0,91,0.00,,,0.00,WUHU21636XXSP,2013-03-19 11:10:00,
2013-03-19 04:13:00,36.1,33.6,30.17,NE,45,0.0,0.0,91,0.00,,,0.00,WUHU21636XXSP,2013-03-19 11:13:00,
2013-03-19 04:14:00,36.1,33.6,30.17,NE,45,0.0,0.0,91,0.00,,,0.00,WUHU21636XXSP,2013-03-19 11:14:00,
2013-03-19 04:16:00,36.1,33.6,30.17,NE,45,0.0,0.0,91,0.00,,,0.00,WUHU21636XXSP,2013-03-19 11:16:00,
2013-03-19 04:18:00,36.1,33.6,30.17,NE,45,0.0,0.0,91,0.00,,,0.00,WUHU21636XXSP,2013-03-19 11:18:00,
2013-03-19 04:19:00,36.1,33.6,30.17,NE,45,0.0,0.0,91,0.00,,,0.00,WUHU21636XXSP,2013-03-19 11:19:00,
2013-03-19 04:20:00,36.1,33.6,30.17,NE,45,0.0,0.0,91,0.00,,,0.00,WUHU21636XXSP,2013-03-19 11:20:00,
2013-03-19 04:21:00,36.1,33.6,30.17,NE,45,0.0,0.0,91,0.00,,,0.00,WUHU21636XXSP,2013-03-19 11:21:00,
2013-03-19 04:23:00,36.1,33.6,30.17,NE,45,0.0,0.0,91,0.00,,,0.00,WUHU21636XXSP,2013-03-19 11:23:00,
2013-03-19 04:24:00,36.1,33.6,30.17,NE,45,0.0,0.0,91,0.00,,,0.00,WUHU21636XXSP,2013-03-19 11:24:00,
2013-03-19 04:25:00,36.1,33.6,30.16,NE,45,0.0,0.0,91,0.00,,,0.00,WUHU21636XXSP,2013-03-19 11:25:00,
2013-03-19 04:26:00,36.1,33.6,30.16,NE,45,0.0,0.0,91,0.00,,,0.00,WUHU21636XXSP,2013-03-19 11:26:00,
2013-03-19 04:29:00,36.1,33.6,30.16,NE,45,0.0,0.0,91,0.00,,,0.00,WUHU21636XXSP,2013-03-19 11:29:00,
2013-03-19 04:30:00,36.1,33.6,30.16,NE,45,0.0,0.0,91,0.00,,,0.00,WUHU21636XXSP,2013-03-19 11:30:00,
2013-03-19 04:32:00,36.3,33.8,30.16,North,0,0.0,0.0,91,0.00,,,0.00,WUHU21636XXSP,2013-03-19 11:32:00,
2013-03-19 04:34:00,36.3,33.5,30.15,North,0,0.0,0.0,90,0.00,,,0.00,WUHU21636XXSP,2013-03-19 11:34:00,
2013-03-19 04:35:00,36.3,33.5,30.15,North,0,0.0,0.0,90,0.00,,,0.00,WUHU21636XXSP,2013-03-19 11:35:00,
2013-03-19 04:37:00,36.3,33.5,30.15,NNW,337,3.1,3.1,90,0.00,,,0.00,WUHU21636XXSP,2013-03-19 11:37:00,
2013-03-19 04:39:00,36.3,33.5,30.16,NNW,337,0.0,3.1,90,0.00,,,0.00,WUHU21636XXSP,2013-03-19 11:39:00,
2013-03-19 04:40:00,36.3,33.5,30.15,NNW,337,0.0,3.1,90,0.00,,,0.00,WUHU21636XXSP,2013-03-19 11:40:00,
2013-03-19 04:42:00,36.3,33.5,30.15,NNW,337,0.0,3.1,90,0.00,,,0.00,WUHU21636XXSP,2013-03-19 11:42:00,
2013-03-19 04:44:00,36.3,33.5,30.15,NNW,337,0.0,3.1,90,0.00,,,0.00,WUHU21636XXSP,2013-03-19 11:44:00,
2013-03-19 04:45:00,36.3,33.5,30.15,NNW,337,0.0,3.1,90,0.00,,,0.00,WUHU21636XXSP,2013-03-19 11:45:00,
2013-03-19 04:48:00,36.3,33.5,30.15,NNW,337,0.0,0.0,90,0.00,,,0.00,WUHU21636XXSP,2013-03-19 11:48:00,
2013-03-19 04:49:00,36.1,33.0,30.15,NNW,337,0.0,0.0,89,0.00,,,0.00,WUHU21636XXSP,2013-03-19 11:49:00,
2013-03-19 04:50:00,36.1,33.3,30.14,NNW,337,0.0,0.0,90,0.00,,,0.00,WUHU21636XXSP,2013-03-19 11:50:00,
2013-03-19 04:53:00,36.1,33.3,30.14,NNW,337,0.0,0.0,90,0.00,,,0.00,WUHU21636XXSP,2013-03-19 11:53:00,
2013-03-19 04:54:00,36.0,33.2,30.14,NNW,337,0.0,0.0,90,0.00,,,0.00,WUHU21636XXSP,2013-03-19 11:54:00,
2013-03-19 04:56:00,36.0,33.2,30.14,NNW,337,0.0,0.0,90,0.00,,,0.00,WUHU21636XXSP,2013-03-19 11:56:00,
2013-03-19 04:58:00,36.0,33.2,30.14,NNW,337,0.0,0.0,90,0.00,,,0.00,WUHU21636XXSP,2013-03-19 11:58:00,
2013-03-19 04:59:00,36.0,33.2,30.14,NNW,337,0.0,0.0,90,0.00,,,0.00,WUHU21636XXSP,2013-03-19 11:59:00,
2013-03-19 05:01:00,36.0,33.2,30.14,NNW,337,0.0,0.0,90,0.00,,,0.00,WUHU21636XXSP,2013-03-19 12:01:00,
2013-03-19 05:03:00,36.0,33.2,30.14,NNW,337,0.0,0.0,90,0.00,,,0.00,WUHU21636XXSP,2013-03-19 12:03:00,
2013-03-19 05:04:00,36.0,33.2,30.14,NNW,337,0.0,0.0,90,0.00,,,0.00,WUHU21636XXSP,2013-03-19 12:04:00,
2013-03-19 05:05:00,36.0,33.2,30.14,NNW,337,0.0,0.0,90,0.00,,,0.00,WUHU21636XXSP,2013-03-19 12:05:00,
2013-03-19 05:06:00,36.0,33.2,30.14,NNW,337,0.0,0.0,90,0.00,,,0.00,WUHU21636XXSP,2013-03-19 12:06:00,
2013-03-19 05:08:00,36.1,33.3,30.14,NNE,22,0.0,0.0,90,0.00,,,0.00,WUHU21636XXSP,2013-03-19 12:08:00,
2013-03-19 05:09:00,36.1,33.3,30.14,NNW,337,1.3,1.3,90,0.00,,,0.00,WUHU21636XXSP,2013-03-19 12:09:00,
2013-03-19 05:10:00,36.1,33.3,30.14,NNW,337,1.3,1.3,90,0.00,,,0.00,WUHU21636XXSP,2013-03-19 12:10:00,
2013-03-19 05:11:00,36.1,33.3,30.14,NNW,337,1.3,1.3,90,0.00,,,0.00,WUHU21636XXSP,2013-03-19 12:11:00,
2013-03-19 05:14:00,36.1,33.3,30.14,NNE,22,0.0,1.3,90,0.00,,,0.00,WUHU21636XXSP,2013-03-19 12:14:00,
2013-03-19 05:15:00,36.1,33.3,30.14,North,0,0.0,1.3,90,0.00,,,0.00,WUHU21636XXSP,2013-03-19 12:15:00,
2013-03-19 05:17:00,36.1,33.3,30.14,North,0,3.8,3.8,90,0.00,,,0.00,WUHU21636XXSP,2013-03-19 12:17:00,
2013-03-19 05:19:00,36.3,33.5,30.14,North,0,6.2,8.5,90,0.00,,,0.00,WUHU21636XXSP,2013-03-19 12:19:00,
2013-03-19 05:20:00,36.3,33.5,30.14,North,0,4.4,8.5,90,0.00,,,0.00,WUHU21636XXSP,2013-03-19 12:20:00,
2013-03-19 05:22:00,36.3,33.5,30.14,North,0,0.8,8.5,90,0.00,,,0.00,WUHU21636XXSP,2013-03-19 12:22:00,
2013-03-19 05:24:00,36.5,33.7,30.13,North,0,0.2,8.5,90,0.00,,,0.00,WUHU21636XXSP,2013-03-19 12:24:00,
2013-03-19 05:25:00,36.5,33.7,30.13,North,0,0.2,8.5,90,0.00,,,0.00,WUHU21636XXSP,2013-03-19 12:25:00,
2013-03-19 05:27:00,36.5,33.4,30.13,North,0,0.0,8.5,89,0.00,,,0.00,WUHU21636XXSP,2013-03-19 12:27:00,
2013-03-19 05:29:00,36.5,33.4,30.13,North,0,0.0,1.1,89,0.00,,,0.00,WUHU21636XXSP,2013-03-19 12:29:00,
2013-03-19 05:30:00,36.5,33.4,30.13,North,0,0.0,1.1,89,0.00,,,0.00,WUHU21636XXSP,2013-03-19 12:30:00,
2013-03-19 05:33:00,36.7,33.6,30.13,NNW,337,0.0,0.2,89,0.00,,,0.00,WUHU21636XXSP,2013-03-19 12:33:00,
2013-03-19 05:34:00,36.7,33.6,30.13,NNW,337,0.0,0.0,89,0.00,,,0.00,WUHU21636XXSP,2013-03-19 12:34:00,
2013-03-19 05:35:00,36.7,33.6,30.13,NNW,337,0.0,0.0,89,0.00,,,0.00,WUHU21636XXSP,2013-03-19 12:35:00,
2013-03-19 05:38:00,36.7,33.6,30.13,NNE,22,0.0,0.0,89,0.00,,,0.00,WUHU21636XXSP,2013-03-19 12:38:00,
2013-03-19 05:39:00,36.7,33.6,30.13,NNE,22,0.0,0.0,89,0.00,,,0.00,WUHU21636XXSP,2013-03-19 12:39:00,
2013-03-19 05:40:00,36.7,33.6,30.13,NNE,22,0.0,0.0,89,0.00,,,0.00,WUHU21636XXSP,2013-03-19 12:40:00,
2013-03-19 05:43:00,36.5,33.4,30.13,NNE,22,0.0,0.0,89,0.00,,,0.00,WUHU21636XXSP,2013-03-19 12:43:00,
2013-03-19 05:44:00,36.5,33.4,30.13,NNE,22,0.0,0.0,89,0.00,,,0.00,WUHU21636XXSP,2013-03-19 12:44:00,
2013-03-19 05:45:00,36.5,33.7,30.13,North,0,0.0,0.0,90,0.00,,,0.00,WUHU21636XXSP,2013-03-19 12:45:00,
2013-03-19 05:48:00,36.5,33.7,30.13,North,0,0.0,0.0,90,0.00,,,0.00,WUHU21636XXSP,2013-03-19 12:48:00,
2013-03-19 05:50:00,36.5,33.7,30.13,North,0,0.0,0.0,90,0.00,,,0.00,WUHU21636XXSP,2013-03-19 12:50:00,
2013-03-19 05:53:00,36.3,33.5,30.13,North,0,0.0,0.0,90,0.00,,,0.00,WUHU21636XXSP,2013-03-19 12:53:00,
2013-03-19 05:55:00,36.3,33.5,30.13,North,0,0.0,0.0,90,0.00,,,0.00,WUHU21636XXSP,2013-03-19 12:55:00,
2013-03-19 05:56:00,36.3,33.5,30.13,North,0,0.0,0.0,90,0.00,,,0.00,WUHU21636XXSP,2013-03-19 12:56:00,
2013-03-19 05:58:00,36.3,33.5,30.13,North,0,0.0,0.0,90,0.00,,,0.00,WUHU21636XXSP,2013-03-19 12:58:00,
2013-03-19 06:00:00,36.3,33.5,30.13,North,0,0.0,0.0,90,0.00,,,0.00,WUHU21636XXSP,2013-03-19 13:00:00,
2013-03-19 06:01:00,36.3,33.5,30.13,North,0,0.0,0.0,90,0.00,,,0.00,WUHU21636XXSP,2013-03-19 13:01:00,
2013-03-19 06:03:00,36.3,33.5,30.12,North,0,0.0,0.0,90,0.00,,,0.00,WUHU21636XXSP,2013-03-19 13:03:00,
2013-03-19 06:05:00,36.3,33.5,30.13,North,0,0.0,0.0,90,0.00,,,0.00,WUHU21636XXSP,2013-03-19 13:05:00,
2013-03-19 06:06:00,36.3,33.5,30.13,North,0,0.0,0.0,90,0.00,,,0.00,WUHU21636XXSP,2013-03-19 13:06:00,
2013-03-19 06:07:00,36.1,33.6,30.13,North,0,0.0,0.0,91,0.00,,,0.00,WUHU21636XXSP,2013-03-19 13:07:00,
2013-03-19 06:09:00,36.3,33.8,30.12,North,0,0.0,0.0,91,0.00,,,0.00,WUHU21636XXSP,2013-03-19 13:09:00,
2013-03-19 06:11:00,36.3,33.8,30.12,North,0,2.2,2.2,91,0.00,,,0.00,WUHU21636XXSP,2013-03-19 13:11:00,
2013-03-19 06:12:00,36.3,33.8,30.12,North,0,2.2,2.2,91,0.00,,,0.00,WUHU21636XXSP,2013-03-19 13:12:00,
2013-03-19 06:14:00,36.1,33.6,30.12,North,0,2.2,2.2,91,0.00,,,0.00,WUHU21636XXSP,2013-03-19 13:14:00,
2013-03-19 06:16:00,36.1,33.6,30.12,North,0,4.4,4.4,91,0.00,,,0.00,WUHU21636XXSP,2013-03-19 13:16:00,
2013-03-19 06:17:00,36.1,33.6,30.12,North,0,4.4,4.4,91,0.00,,,0.00,WUHU21636XXSP,2013-03-19 13:17:00,
2013-03-19 06:19:00,36.1,33.6,30.12,North,0,2.0,4.4,91,0.00,,,0.00,WUHU21636XXSP,2013-03-19 13:19:00,
2013-03-19 06:21:00,36.1,33.6,30.11,North,0,1.5,4.4,91,0.00,,,0.00,WUHU21636XXSP,2013-03-19 13:21:00,
2013-03-19 06:22:00,36.3,33.8,30.11,North,0,2.9,4.4,91,0.00,,,0.00,WUHU21636XXSP,2013-03-19 13:22:00,
2013-03-19 06:24:00,36.3,33.8,30.11,North,0,2.9,4.4,91,0.00,,,0.00,WUHU21636XXSP,2013-03-19 13:24:00,
2013-03-19 06:26:00,36.3,33.8,30.11,North,0,2.4,4.4,91,0.00,,,0.00,WUHU21636XXSP,2013-03-19 13:26:00,
2013-03-19 06:27:00,36.3,33.8,30.11,North,0,2.4,4.4,91,0.00,,,0.00,WUHU21636XXSP,2013-03-19 13:27:00,
2013-03-19 06:29:00,36.3,33.8,30.11,NNE,22,1.5,2.9,91,0.00,,,0.00,WUHU21636XXSP,2013-03-19 13:29:00,
2013-03-19 06:32:00,36.3,33.8,30.11,NNE,22,1.5,2.9,91,0.00,,,0.00,WUHU21636XXSP,2013-03-19 13:32:00,
2013-03-19 06:34:00,36.3,33.8,30.11,NNW,337,0.0,2.4,91,0.00,,,0.00,WUHU21636XXSP,2013-03-19 13:34:00,
2013-03-19 06:37:00,36.3,33.8,30.11,North,0,0.0,1.5,91,0.00,,,0.00,WUHU21636XXSP,2013-03-19 13:37:00,
2013-03-19 06:38:00,36.3,33.8,30.11,North,0,0.0,1.5,91,0.00,,,0.00,WUHU21636XXSP,2013-03-19 13:38:00,
2013-03-19 06:39:00,36.3,33.8,30.11,North,0,0.0,1.5,91,0.00,,,0.00,WUHU21636XXSP,2013-03-19 13:39:00,
2013-03-19 06:40:00,36.3,33.8,30.11,North,0,0.0,0.0,91,0.00,,,0.00,WUHU21636XXSP,2013-03-19 13:40:00,
2013-03-19 06:42:00,36.3,33.8,30.11,North,0,3.3,3.3,91,0.00,,,0.00,WUHU21636XXSP,2013-03-19 13:42:00,
2013-03-19 06:43:00,36.3,33.8,30.11,North,0,3.3,3.3,91,0.00,,,0.00,WUHU21636XXSP,2013-03-19 13:43:00,
2013-03-19 06:44:00,36.3,33.8,30.11,North,8,2.5,3.3,91,0.00,,,0.00,WUHU21636XXSP,2013-03-19 13:44:00,
2013-03-19 06:45:00,36.3,33.8,30.11,NNE,22,1.7,3.3,91,0.00,,,0.00,WUHU21636XXSP,2013-03-19 13:45:00,
2013-03-19 06:48:00,36.3,33.8,30.11,NNE,22,4.4,4.4,91,0.00,,,0.00,WUHU21636XXSP,2013-03-19 13:48:00,
2013-03-19 06:49:00,36.3,33.8,30.10,NNE,22,4.4,4.4,91,0.00,,,0.00,WUHU21636XXSP,2013-03-19 13:49:00,
2013-03-19 06:50:00,36.3,33.8,30.10,NNE,22,4.4,4.4,91,0.00,,,0.00,WUHU21636XXSP,2013-03-19 13:50:00,
2013-03-19 06:53:00,36.5,33.7,30.11,NNW,337,3.1,4.4,90,0.00,,,0.00,WUHU21636XXSP,2013-03-19 13:53:00,
2013-03-19 06:55:00,36.5,33.7,30.11,NNW,337,3.1,4.4,90,0.00,,,0.00,WUHU21636XXSP,2013-03-19 13:55:00,
2013-03-19 06:58:00,36.5,33.7,30.11,North,0,1.7,4.4,90,0.00,,,0.00,WUHU21636XXSP,2013-03-19 13:58:00,
2013-03-19 07:00:00,36.5,33.7,30.11,North,0,1.7,3.1,90,0.00,,,0.00,WUHU21636XXSP,2013-03-19 14:00:00,
2013-03-19 07:01:00,36.5,33.7,30.11,North,0,0.0,3.1,90,0.00,,,0.00,WUHU21636XXSP,2013-03-19 14:01:00,
2013-03-19 07:03:00,36.5,33.7,30.11,North,0,0.0,3.1,90,0.00,,,0.00,WUHU21636XXSP,2013-03-19 14:03:00,
2013-03-19 07:05:00,36.5,33.7,30.11,North,0,0.0,1.7,90,0.00,,,0.00,WUHU21636XXSP,2013-03-19 14:05:00,
2013-03-19 07:06:00,36.5,33.7,30.11,North,0,0.0,1.7,90,0.00,,,0.00,WUHU21636XXSP,2013-03-19 14:06:00,
2013-03-19 07:08:00,36.5,33.7,30.10,North,0,1.1,1.1,90,0.00,,,0.00,WUHU21636XXSP,2013-03-19 14:08:00,
2013-03-19 07:10:00,36.5,33.7,30.10,North,0,1.1,1.1,90,0.00,,,0.00,WUHU21636XXSP,2013-03-19 14:10:00,
2013-03-19 07:11:00,36.5,33.7,30.10,North,0,1.1,1.1,90,0.00,,,0.00,WUHU21636XXSP,2013-03-19 14:11:00,
2013-03-19 07:13:00,36.5,33.7,30.10,NNE,22,0.0,1.1,90,0.00,,,0.00,WUHU21636XXSP,2013-03-19 14:13:00,
2013-03-19 07:15:00,36.5,33.7,30.10,NNE,22,0.0,1.1,90,0.00,,,0.00,WUHU21636XXSP,2013-03-19 14:15:00,
2013-03-19 07:16:00,36.5,33.7,30.10,North,0,2.6,2.6,90,0.00,,,0.00,WUHU21636XXSP,2013-03-19 14:16:00,
2013-03-19 07:18:00,36.5,33.7,30.10,North,4,1.8,2.6,90,0.00,,,0.00,WUHU21636XXSP,2013-03-19 14:18:00,
2013-03-19 07:19:00,36.5,33.7,30.10,North,5,1.7,2.6,90,0.00,,,0.00,WUHU21636XXSP,2013-03-19 14:19:00,
2013-03-19 07:20:00,36.5,33.7,30.10,NNE,22,0.8,2.6,90,0.00,,,0.00,WUHU21636XXSP,2013-03-19 14:20:00,
2013-03-19 07:22:00,36.5,33.7,30.10,NNE,22,0.8,2.6,90,0.00,,,0.00,WUHU21636XXSP,2013-03-19 14:22:00,
2013-03-19 07:24:00,36.5,33.7,30.10,NNW,337,0.8,2.6,90,0.00,,,0.00,WUHU21636XXSP,2013-03-19 14:24:00,
2013-03-19 07:25:00,36.7,33.9,30.10,NNW,337,0.8,2.6,90,0.00,,,0.00,WUHU21636XXSP,2013-03-19 14:25:00,
2013-03-19 07:27:00,36.7,33.6,30.10,North,0,0.0,2.6,89,0.00,,,0.00,WUHU21636XXSP,2013-03-19 14:27:00,
2013-03-19 07:29:00,36.7,33.6,30.10,North,0,0.0,0.8,89,0.00,,,0.00,WUHU21636XXSP,2013-03-19 14:29:00,
2013-03-19 07:30:00,36.7,33.6,30.10,North,0,0.0,0.8,89,0.00,,,0.00,WUHU21636XXSP,2013-03-19 14:30:00,
2013-03-19 07:32:00,36.7,33.6,30.10,North,0,0.6,0.8,89,0.00,,,0.00,WUHU21636XXSP,2013-03-19 14:32:00,
2013-03-19 07:34:00,36.7,33.6,30.10,North,0,0.6,0.8,89,0.00,,,0.00,WUHU21636XXSP,2013-03-19 14:34:00,
2013-03-19 07:36:00,36.7,33.6,30.09,North,0,0.0,0.6,89,0.00,,,0.00,WUHU21636XXSP,2013-03-19 14:36:00,
2013-03-19 07:37:00,36.7,33.6,30.09,North,0,0.0,0.6,89,0.00,,,0.00,WUHU21636XXSP,2013-03-19 14:37:00,
2013-03-19 07:39:00,36.7,33.6,30.09,North,0,0.0,0.6,89,0.00,,,0.00,WUHU21636XXSP,2013-03-19 14:39:00,
2013-03-19 07:41:00,36.7,33.6,30.09,North,0,0.0,0.6,89,0.00,,,0.00,WUHU21636XXSP,2013-03-19 14:41:00,
2013-03-19 07:42:00,36.7,33.6,30.09,North,0,0.0,0.6,89,0.00,,,0.00,WUHU21636XXSP,2013-03-19 14:42:00,
2013-03-19 07:44:00,36.7,33.6,30.09,North,0,0.0,0.0,89,0.00,,,0.00,WUHU21636XXSP,2013-03-19 14:44:00,
2013-03-19 07:46:00,36.7,33.6,30.09,North,0,0.0,0.0,89,0.00,,,0.00,WUHU21636XXSP,2013-03-19 14:46:00,
2013-03-19 07:47:00,36.9,33.8,30.09,North,0,0.0,0.0,89,0.00,,,0.00,WUHU21636XXSP,2013-03-19 14:47:00,
2013-03-19 07:50:00,36.7,33.6,30.09,North,0,0.0,0.0,89,0.00,,,0.00,WUHU21636XXSP,2013-03-19 14:50:00,
2013-03-19 07:51:00,37.0,34.2,30.09,North,0,0.0,0.0,90,0.00,,,0.00,WUHU21636XXSP,2013-03-19 14:51:00,
2013-03-19 07:52:00,37.0,34.2,30.09,North,0,0.0,0.0,90,0.00,,,0.00,WUHU21636XXSP,2013-03-19 14:52:00,
2013-03-19 07:53:00,36.7,33.9,30.09,North,0,0.0,0.0,90,0.00,,,0.00,WUHU21636XXSP,2013-03-19 14:53:00,
2013-03-19 07:55:00,37.0,34.2,30.09,North,0,0.0,0.0,90,0.00,,,0.00,WUHU21636XXSP,2013-03-19 14:55:00,
2013-03-19 07:57:00,37.0,34.2,30.09,North,0,0.0,0.0,90,0.00,,,0.00,WUHU21636XXSP,2013-03-19 14:57:00,
2013-03-19 07:58:00,37.0,34.2,30.09,North,0,0.0,0.0,90,0.00,,,0.00,WUHU21636XXSP,2013-03-19 14:58:00,
2013-03-19 08:00:00,37.0,34.2,30.09,North,0,0.0,0.0,90,0.00,,,0.00,WUHU21636XXSP,2013-03-19 15:00:00,
2013-03-19 08:02:00,37.0,34.2,30.09,North,0,0.0,0.0,90,0.00,,,0.00,WUHU21636XXSP,2013-03-19 15:02:00,
2013-03-19 08:03:00,37.0,34.2,30.09,North,0,0.0,0.0,90,0.00,,,0.00,WUHU21636XXSP,2013-03-19 15:03:00,
2013-03-19 08:05:00,37.0,34.2,30.09,North,0,0.0,0.0,90,0.00,,,0.00,WUHU21636XXSP,2013-03-19 15:05:00,
2013-03-19 08:07:00,37.0,34.2,30.09,North,0,0.0,0.0,90,0.00,,,0.00,WUHU21636XXSP,2013-03-19 15:07:00,
2013-03-19 08:08:00,37.0,34.5,30.09,NW,315,0.0,0.0,91,0.00,,,0.00,WUHU21636XXSP,2013-03-19 15:08:00,
2013-03-19 08:10:00,37.0,34.2,30.09,NW,315,0.0,0.0,90,0.00,,,0.00,WUHU21636XXSP,2013-03-19 15:10:00,
2013-03-19 08:12:00,37.0,34.2,30.09,North,0,3.1,3.1,90,0.00,,,0.00,WUHU21636XXSP,2013-03-19 15:12:00,
2013-03-19 08:14:00,37.0,34.2,30.09,North,0,3.1,3.1,90,0.00,,,0.00,WUHU21636XXSP,2013-03-19 15:14:00,
2013-03-19 08:15:00,36.9,34.1,30.09,North,0,3.1,3.1,90,0.00,,,0.00,WUHU21636XXSP,2013-03-19 15:15:00,
2013-03-19 08:17:00,37.0,34.2,30.09,North,0,0.0,3.1,90,0.00,,,0.00,WUHU21636XXSP,2013-03-19 15:17:00,
2013-03-19 08:19:00,37.0,34.5,30.08,North,0,0.0,3.1,91,0.00,,,0.00,WUHU21636XXSP,2013-03-19 15:19:00,
2013-03-19 08:20:00,37.0,34.5,30.08,North,0,0.0,3.1,91,0.00,,,0.00,WUHU21636XXSP,2013-03-19 15:20:00,
2013-03-19 08:22:00,37.0,34.5,30.08,North,0,0.0,3.1,91,0.00,,,0.00,WUHU21636XXSP,2013-03-19 15:22:00,
2013-03-19 08:24:00,37.2,34.4,30.08,NNE,22,1.7,1.7,90,0.00,,,0.00,WUHU21636XXSP,2013-03-19 15:24:00,
2013-03-19 08:25:00,37.0,34.2,30.08,NNE,22,1.7,1.7,90,0.00,,,0.00,WUHU21636XXSP,2013-03-19 15:25:00,
2013-03-19 08:27:00,37.0,34.2,30.08,NNE,22,0.0,1.7,90,0.00,,,0.00,WUHU21636XXSP,2013-03-19 15:27:00,
2013-03-19 08:29:00,37.0,34.2,30.08,NNE,22,0.6,1.7,90,0.00,,,0.00,WUHU21636XXSP,2013-03-19 15:29:00,
2013-03-19 08:30:00,37.0,34.2,30.08,NNE,22,0.6,1.7,90,0.00,,,0.00,WUHU21636XXSP,2013-03-19 15:30:00,
2013-03-19 08:33:00,37.0,34.2,30.08,NNE,22,0.6,1.7,90,0.00,,,0.00,WUHU21636XXSP,2013-03-19 15:33:00,
2013-03-19 08:34:00,37.2,34.4,30.08,NE,45,3.5,3.5,90,0.00,,,0.00,WUHU21636XXSP,2013-03-19 15:34:00,
2013-03-19 08:35:00,37.2,34.4,30.08,NE,45,3.5,3.5,90,0.00,,,0.00,WUHU21636XXSP,2013-03-19 15:35:00,
2013-03-19 08:38:00,37.2,34.1,30.08,NNW,337,2.6,3.5,89,0.00,,,0.00,WUHU21636XXSP,2013-03-19 15:38:00,
2013-03-19 08:39:00,37.2,34.1,30.08,NNW,337,2.6,3.5,89,0.00,,,0.00,WUHU21636XXSP,2013-03-19 15:39:00,
2013-03-19 08:40:00,37.2,34.1,30.08,NNW,337,2.6,3.5,89,0.00,,,0.00,WUHU21636XXSP,2013-03-19 15:40:00,
2013-03-19 08:43:00,37.2,34.4,30.08,NNE,22,0.0,3.5,90,0.00,,,0.00,WUHU21636XXSP,2013-03-19 15:43:00,
2013-03-19 08:44:00,37.6,34.8,30.08,NNE,22,0.0,3.5,90,0.00,,,0.00,WUHU21636XXSP,2013-03-19 15:44:00,
2013-03-19 08:45:00,37.6,34.8,30.08,NNE,22,0.0,3.5,90,0.00,,,0.00,WUHU21636XXSP,2013-03-19 15:45:00,
2013-03-19 08:48:00,37.6,34.8,30.08,NNE,22,0.0,2.6,90,0.00,,,0.00,WUHU21636XXSP,2013-03-19 15:48:00,
2013-03-19 08:49:00,37.6,34.5,30.08,NNE,22,0.0,2.6,89,0.00,,,0.00,WUHU21636XXSP,2013-03-19 15:49:00,
2013-03-19 08:50:00,37.6,34.5,30.08,NNE,22,0.0,0.0,89,0.00,,,0.00,WUHU21636XXSP,2013-03-19 15:50:00,
2013-03-19 08:53:00,37.6,34.2,30.08,North,0,2.9,2.9,88,0.00,,,0.00,WUHU21636XXSP,2013-03-19 15:53:00,
2013-03-19 08:54:00,37.6,34.2,30.08,North,0,2.9,2.9,88,0.00,,,0.00,WUHU21636XXSP,2013-03-19 15:54:00,
2013-03-19 08:55:00,37.6,34.2,30.08,North,0,0.0,2.9,88,0.00,,,0.00,WUHU21636XXSP,2013-03-19 15:55:00,
2013-03-19 08:58:00,37.8,34.4,30.08,North,0,0.0,2.9,88,0.00,,,0.00,WUHU21636XXSP,2013-03-19 15:58:00,
2013-03-19 08:59:00,37.8,34.4,30.08,North,0,0.0,2.9,88,0.00,,,0.00,WUHU21636XXSP,2013-03-19 15:59:00,
2013-03-19 09:00:00,37.8,34.4,30.08,North,0,0.0,2.9,88,0.00,,,0.00,WUHU21636XXSP,2013-03-19 16:00:00,
2013-03-19 09:03:00,37.9,34.5,30.08,North,0,0.0,0.0,88,0.00,,,0.00,WUHU21636XXSP,2013-03-19 16:03:00,
2013-03-19 09:04:00,37.9,34.5,30.08,North,0,0.0,0.0,88,0.00,,,0.00,WUHU21636XXSP,2013-03-19 16:04:00,
2013-03-19 09:06:00,37.9,34.5,30.08,North,0,0.0,0.0,88,0.00,,,0.00,WUHU21636XXSP,2013-03-19 16:06:00,
2013-03-19 09:08:00,38.1,34.7,30.08,NNE,22,2.9,2.9,88,0.00,,,0.00,WUHU21636XXSP,2013-03-19 16:08:00,
2013-03-19 09:09:00,38.1,34.7,30.08,NNE,22,2.9,2.9,88,0.00,,,0.00,WUHU21636XXSP,2013-03-19 16:09:00,
2013-03-19 09:11:00,38.1,34.4,30.08,NNE,22,2.9,2.9,87,0.00,,,0.00,WUHU21636XXSP,2013-03-19 16:11:00,
2013-03-19 09:13:00,38.1,34.4,30.07,North,0,4.0,4.0,87,0.00,,,0.00,WUHU21636XXSP,2013-03-19 16:13:00,
2013-03-19 09:14:00,38.1,34.4,30.07,North,0,6.2,7.8,87,0.00,,,0.00,WUHU21636XXSP,2013-03-19 16:14:00,
2013-03-19 09:17:00,38.3,34.6,30.07,North,0,3.8,9.8,87,0.00,,,0.00,WUHU21636XXSP,2013-03-19 16:17:00,
2013-03-19 09:19:00,38.3,34.6,30.07,North,0,3.3,9.8,87,0.00,,,0.00,WUHU21636XXSP,2013-03-19 16:19:00,
2013-03-19 09:20:00,38.5,34.8,30.07,North,0,0.0,9.8,87,0.00,,,0.00,WUHU21636XXSP,2013-03-19 16:20:00,
2013-03-19 09:22:00,38.5,34.8,30.07,North,0,0.0,9.8,87,0.00,,,0.00,WUHU21636XXSP,2013-03-19 16:22:00,
2013-03-19 09:24:00,38.7,35.0,30.07,North,0,1.3,9.8,87,0.00,,,0.00,WUHU21636XXSP,2013-03-19 16:24:00,
2013-03-19 09:25:00,38.7,35.0,30.07,North,0,1.3,9.8,87,0.00,,,0.00,WUHU21636XXSP,2013-03-19 16:25:00,
2013-03-19 09:27:00,38.7,35.0,30.06,North,0,3.1,3.3,87,0.00,,,0.00,WUHU21636XXSP,2013-03-19 16:27:00,
2013-03-19 09:29:00,38.8,35.1,30.06,North,0,2.3,3.1,87,0.00,,,0.00,WUHU21636XXSP,2013-03-19 16:29:00,
2013-03-19 09:30:00,38.8,35.1,30.06,North,0,1.4,3.1,87,0.00,,,0.00,WUHU21636XXSP,2013-03-19 16:30:00,
2013-03-19 09:32:00,39.0,35.3,30.06,NNE,13,3.8,7.3,87,0.00,,,0.00,WUHU21636XXSP,2013-03-19 16:32:00,
2013-03-19 09:34:00,39.0,35.0,30.06,NNE,22,2.0,7.3,86,0.00,,,0.00,WUHU21636XXSP,2013-03-19 16:34:00,
2013-03-19 09:35:00,39.0,35.0,30.06,NNE,22,2.0,7.3,86,0.00,,,0.00,WUHU21636XXSP,2013-03-19 16:35:00,
2013-03-19 09:37:00,39.2,35.2,30.06,North,0,0.0,7.3,86,0.00,,,0.00,WUHU21636XXSP,2013-03-19 16:37:00,
2013-03-19 09:39:00,39.4,35.4,30.06,NNE,22,0.0,7.3,86,0.00,,,0.00,WUHU21636XXSP,2013-03-19 16:39:00,
2013-03-19 09:40:00,39.4,35.4,30.06,NNE,22,0.0,7.3,86,0.00,,,0.00,WUHU21636XXSP,2013-03-19 16:40:00,
2013-03-19 09:42:00,39.4,35.1,30.06,NNE,22,1.7,2.0,85,0.00,,,0.00,WUHU21636XXSP,2013-03-19 16:42:00,
2013-03-19 09:44:00,39.4,35.1,30.06,ENE,67,0.0,1.7,85,0.00,,,0.00,WUHU21636XXSP,2013-03-19 16:44:00,
2013-03-19 09:45:00,39.6,35.3,30.06,NE,45,0.6,1.7,85,0.00,,,0.00,WUHU21636XXSP,2013-03-19 16:45:00,
2013-03-19 09:48:00,39.6,35.3,30.06,NE,45,0.6,1.7,85,0.00,,,0.00,WUHU21636XXSP,2013-03-19 16:48:00,
2013-03-19 09:49:00,39.6,35.3,30.06,North,0,0.0,1.7,85,0.00,,,0.00,WUHU21636XXSP,2013-03-19 16:49:00,
2013-03-19 09:50:00,39.6,35.3,30.06,North,0,0.0,1.7,85,0.00,,,0.00,WUHU21636XXSP,2013-03-19 16:50:00,
2013-03-19 09:53:00,39.7,35.1,30.06,East,90,0.4,0.6,83,0.00,,,0.00,WUHU21636XXSP,2013-03-19 16:53:00,
2013-03-19 09:54:00,39.7,35.1,30.06,East,90,0.4,0.6,83,0.00,,,0.00,WUHU21636XXSP,2013-03-19 16:54:00,
2013-03-19 09:55:00,39.7,35.1,30.06,East,90,0.4,0.6,83,0.00,,,0.00,WUHU21636XXSP,2013-03-19 16:55:00,
2013-03-19 09:58:00,39.9,35.3,30.06,ESE,112,0.0,0.4,83,0.00,,,0.00,WUHU21636XXSP,2013-03-19 16:58:00,
2013-03-19 09:59:00,39.9,35.3,30.06,ESE,112,0.0,0.4,83,0.00,,,0.00,WUHU21636XXSP,2013-03-19 16:59:00,
2013-03-19 10:00:00,40.1,35.2,30.07,ENE,67,0.0,0.4,82,0.00,,,0.00,WUHU21636XXSP,2013-03-19 17:00:00,
2013-03-19 10:01:00,40.1,35.2,30.07,ENE,67,0.0,0.4,82,0.00,,,0.00,WUHU21636XXSP,2013-03-19 17:01:00,
2013-03-19 10:04:00,40.1,35.2,30.07,ENE,67,0.0,0.0,82,0.00,,,0.00,WUHU21636XXSP,2013-03-19 17:04:00,
2013-03-19 10:05:00,40.1,35.2,30.07,ESE,112,0.0,0.0,82,0.00,,,0.00,WUHU21636XXSP,2013-03-19 17:05:00,
2013-03-19 10:06:00,40.1,35.2,30.07,ESE,112,0.0,0.0,82,0.00,,,0.00,WUHU21636XXSP,2013-03-19 17:06:00,
2013-03-19 10:09:00,40.3,34.7,30.07,ESE,112,0.0,0.0,80,0.00,,,0.00,WUHU21636XXSP,2013-03-19 17:09:00,
2013-03-19 10:10:00,40.3,34.7,30.07,ESE,112,0.0,0.0,80,0.00,,,0.00,WUHU21636XXSP,2013-03-19 17:10:00,
2013-03-19 10:11:00,40.6,35.3,30.07,ESE,112,0.0,0.0,81,0.00,,,0.00,WUHU21636XXSP,2013-03-19 17:11:00,
2013-03-19 10:14:00,40.6,35.3,30.06,NE,45,0.8,0.8,81,0.00,,,0.00,WUHU21636XXSP,2013-03-19 17:14:00,
2013-03-19 10:15:00,40.6,35.3,30.06,NE,45,0.8,0.8,81,0.00,,,0.00,WUHU21636XXSP,2013-03-19 17:15:00,
2013-03-19 10:16:00,40.6,35.3,30.06,NE,45,0.8,0.8,81,0.00,,,0.00,WUHU21636XXSP,2013-03-19 17:16:00,
2013-03-19 10:19:00,40.8,34.9,30.06,East,90,0.0,0.8,79,0.00,,,0.00,WUHU21636XXSP,2013-03-19 17:19:00,
2013-03-19 10:20:00,40.8,34.9,30.06,East,90,0.0,0.8,79,0.00,,,0.00,WUHU21636XXSP,2013-03-19 17:20:00,
2013-03-19 10:21:00,40.8,34.9,30.06,East,90,0.0,0.8,79,0.00,,,0.00,WUHU21636XXSP,2013-03-19 17:21:00,
2013-03-19 10:24:00,41.2,35.3,30.06,NNE,22,1.7,1.7,79,0.00,,,0.00,WUHU21636XXSP,2013-03-19 17:24:00,
2013-03-19 10:25:00,41.2,35.3,30.06,NNE,22,1.7,1.7,79,0.00,,,0.00,WUHU21636XXSP,2013-03-19 17:25:00,
2013-03-19 10:26:00,41.2,35.3,30.06,NNE,22,1.7,1.7,79,0.00,,,0.00,WUHU21636XXSP,2013-03-19 17:26:00,
2013-03-19 10:29:00,41.4,35.2,30.06,ENE,67,0.0,1.7,78,0.00,,,0.00,WUHU21636XXSP,2013-03-19 17:29:00,
2013-03-19 10:30:00,41.5,34.9,30.06,NE,45,0.0,1.7,77,0.00,,,0.00,WUHU21636XXSP,2013-03-19 17:30:00,
2013-03-19 10:31:00,41.5,34.9,30.06,NE,45,0.0,1.7,77,0.00,,,0.00,WUHU21636XXSP,2013-03-19 17:31:00,
2013-03-19 10:34:00,41.7,35.1,30.06,NE,45,2.2,2.2,77,0.00,,,0.00,WUHU21636XXSP,2013-03-19 17:34:00,
2013-03-19 10:35:00,41.7,35.1,30.06,NE,45,2.2,2.2,77,0.00,,,0.00,WUHU21636XXSP,2013-03-19 17:35:00,
2013-03-19 10:37:00,41.7,35.1,30.06,NE,45,2.2,2.2,77,0.00,,,0.00,WUHU21636XXSP,2013-03-19 17:37:00,
2013-03-19 10:39:00,41.7,35.5,30.05,NE,45,0.0,2.2,78,0.00,,,0.00,WUHU21636XXSP,2013-03-19 17:39:00,
2013-03-19 10:40:00,41.7,35.5,30.05,NE,45,0.0,2.2,78,0.00,,,0.00,WUHU21636XXSP,2013-03-19 17:40:00,
2013-03-19 10:42:00,42.1,35.5,30.05,ESE,112,0.0,2.2,77,0.00,,,0.00,WUHU21636XXSP,2013-03-19 17:42:00,
2013-03-19 10:45:00,42.4,35.5,30.05,ESE,112,2.4,2.4,76,0.00,,,0.00,WUHU21636XXSP,2013-03-19 17:45:00,
2013-03-19 10:47:00,42.4,35.2,30.05,ENE,67,0.0,2.4,75,0.00,,,0.00,WUHU21636XXSP,2013-03-19 17:47:00,
2013-03-19 10:50:00,42.4,35.2,30.05,ESE,112,0.0,2.4,75,0.00,,,0.00,WUHU21636XXSP,2013-03-19 17:50:00,
2013-03-19 10:51:00,42.4,35.2,30.05,ESE,112,0.0,2.4,75,0.00,,,0.00,WUHU21636XXSP,2013-03-19 17:51:00,
2013-03-19 10:52:00,42.8,35.9,30.04,NE,45,0.8,2.4,76,0.00,,,0.00,WUHU21636XXSP,2013-03-19 17:52:00,
2013-03-19 10:55:00,42.8,35.9,30.04,NE,45,2.2,2.2,76,0.00,,,0.00,WUHU21636XXSP,2013-03-19 17:55:00,
2013-03-19 10:56:00,43.0,35.4,30.04,NE,45,2.2,2.2,74,0.00,,,0.00,WUHU21636XXSP,2013-03-19 17:56:00,
2013-03-19 10:57:00,43.0,35.4,30.04,NE,45,2.2,2.2,74,0.00,,,0.00,WUHU21636XXSP,2013-03-19 17:57:00,
2013-03-19 10:58:00,43.0,35.7,30.04,NNE,22,2.2,2.2,75,0.00,,,0.00,WUHU21636XXSP,2013-03-19 17:58:00,
2013-03-19 11:00:00,43.2,35.6,30.05,NE,42,1.9,2.2,74,0.00,,,0.00,WUHU21636XXSP,2013-03-19 18:00:00,
2013-03-19 11:01:00,43.2,35.6,30.05,ENE,58,1.7,2.2,74,0.00,,,0.00,WUHU21636XXSP,2013-03-19 18:01:00,
2013-03-19 11:02:00,43.3,35.3,30.04,ESE,112,1.3,2.2,73,0.00,,,0.00,WUHU21636XXSP,2013-03-19 18:02:00,
2013-03-19 11:03:00,43.3,35.3,30.04,ESE,112,1.3,2.2,73,0.00,,,0.00,WUHU21636XXSP,2013-03-19 18:03:00,
2013-03-19 11:06:00,43.3,35.0,30.04,NE,45,1.1,2.2,72,0.00,,,0.00,WUHU21636XXSP,2013-03-19 18:06:00,
2013-03-19 11:07:00,43.5,35.2,30.04,NE,45,1.1,2.2,72,0.00,,,0.00,WUHU21636XXSP,2013-03-19 18:07:00,
2013-03-19 11:08:00,43.5,35.2,30.04,NE,45,0.0,2.2,72,0.00,,,0.00,WUHU21636XXSP,2013-03-19 18:08:00,
2013-03-19 11:11:00,43.5,34.8,30.04,ENE,67,0.0,1.3,71,0.00,,,0.00,WUHU21636XXSP,2013-03-19 18:11:00,
2013-03-19 11:12:00,43.5,34.8,30.04,ENE,67,0.0,1.1,71,0.00,,,0.00,WUHU21636XXSP,2013-03-19 18:12:00,
2013-03-19 11:13:00,43.9,35.9,30.04,ENE,67,0.0,1.1,73,0.00,,,0.00,WUHU21636XXSP,2013-03-19 18:13:00,
2013-03-19 11:16:00,43.9,35.2,30.04,ENE,67,0.0,0.0,71,0.00,,,0.00,WUHU21636XXSP,2013-03-19 18:16:00,
2013-03-19 11:17:00,43.9,35.2,30.04,ENE,67,0.0,0.0,71,0.00,,,0.00,WUHU21636XXSP,2013-03-19 18:17:00,
2013-03-19 11:18:00,44.2,35.9,30.04,ENE,67,0.0,0.0,72,0.00,,,0.00,WUHU21636XXSP,2013-03-19 18:18:00,
2013-03-19 11:22:00,44.4,35.3,30.04,ENE,67,0.0,0.0,70,0.00,,,0.00,WUHU21636XXSP,2013-03-19 18:22:00,
2013-03-19 11:23:00,44.4,35.3,30.04,ENE,67,0.0,0.0,70,0.00,,,0.00,WUHU21636XXSP,2013-03-19 18:23:00,
2013-03-19 11:27:00,45.0,36.3,30.04,ENE,67,0.0,0.0,71,0.00,,,0.00,WUHU21636XXSP,2013-03-19 18:27:00,
2013-03-19 11:28:00,45.3,35.8,30.04,ENE,67,0.0,0.0,69,0.00,,,0.00,WUHU21636XXSP,2013-03-19 18:28:00,
2013-03-19 11:32:00,45.5,36.4,30.04,ENE,67,0.0,0.0,70,0.00,,,0.00,WUHU21636XXSP,2013-03-19 18:32:00,
2013-03-19 11:33:00,45.7,35.8,30.04,ENE,67,0.0,0.0,68,0.00,,,0.00,WUHU21636XXSP,2013-03-19 18:33:00,
2013-03-19 11:38:00,46.0,35.7,30.04,East,90,0.0,0.0,67,0.00,,,0.00,WUHU21636XXSP,2013-03-19 18:38:00,
2013-03-19 11:43:00,46.6,35.9,30.03,NNE,22,1.7,1.7,66,0.00,,,0.00,WUHU21636XXSP,2013-03-19 18:43:00,
2013-03-19 11:44:00,46.6,35.9,30.03,NNE,22,1.7,1.7,66,0.00,,,0.00,WUHU21636XXSP,2013-03-19 18:44:00,
2013-03-19 11:49:00,46.9,35.4,30.03,NNE,22,0.0,1.7,64,0.00,,,0.00,WUHU21636XXSP,2013-03-19 18:49:00,
2013-03-19 11:54:00,47.3,36.2,30.03,South,180,1.5,2.6,65,0.00,,,0.00,WUHU21636XXSP,2013-03-19 18:54:00,
2013-03-19 11:59:00,47.8,35.4,30.03,South,180,0.0,2.6,62,0.00,,,0.00,WUHU21636XXSP,2013-03-19 18:59:00,
2013-03-19 12:04:00,48.0,34.3,30.01,South,180,0.0,1.5,59,0.00,,,0.00,WUHU21636XXSP,2013-03-19 19:04:00,
2013-03-19 12:05:00,48.0,34.3,30.01,South,180,0.0,1.5,59,0.00,,,0.00,WUHU21636XXSP,2013-03-19 19:05:00,
2013-03-19 12:09:00,48.4,34.2,30.01,South,180,0.0,0.0,58,0.00,,,0.00,WUHU21636XXSP,2013-03-19 19:09:00,
2013-03-19 12:10:00,48.4,34.2,30.01,South,180,0.0,0.0,58,0.00,,,0.00,WUHU21636XXSP,2013-03-19 19:10:00,
2013-03-19 12:14:00,48.9,35.2,30.01,South,180,0.0,0.0,59,0.00,,,0.00,WUHU21636XXSP,2013-03-19 19:14:00,
2013-03-19 12:15:00,48.9,35.2,30.00,South,180,0.0,0.0,59,0.00,,,0.00,WUHU21636XXSP,2013-03-19 19:15:00,
2013-03-19 12:19:00,49.3,35.1,30.00,SE,135,0.0,0.0,58,0.00,,,0.00,WUHU21636XXSP,2013-03-19 19:19:00,
2013-03-19 12:20:00,49.3,33.7,30.00,SE,135,1.1,1.1,55,0.00,,,0.00,WUHU21636XXSP,2013-03-19 19:20:00,
2013-03-19 12:24:00,50.2,33.5,30.00,ESE,112,3.6,3.8,53,0.00,,,0.00,WUHU21636XXSP,2013-03-19 19:24:00,
2013-03-19 12:25:00,50.2,33.5,30.00,ESE,112,3.1,3.8,53,0.00,,,0.00,WUHU21636XXSP,2013-03-19 19:25:00,
2013-03-19 12:29:00,50.4,34.7,30.00,SSE,160,2.9,3.8,55,0.00,,,0.00,WUHU21636XXSP,2013-03-19 19:29:00,
2013-03-19 12:30:00,50.4,34.7,30.00,South,171,2.7,3.8,55,0.00,,,0.00,WUHU21636XXSP,2013-03-19 19:30:00,
2013-03-19 12:34:00,50.7,34.5,29.99,East,90,0.2,4.0,54,0.00,,,0.00,WUHU21636XXSP,2013-03-19 19:34:00,
2013-03-19 12:35:00,50.9,33.7,29.99,South,180,4.4,4.4,52,0.00,,,0.00,WUHU21636XXSP,2013-03-19 19:35:00,
2013-03-19 12:37:00,50.9,33.7,29.99,South,180,4.4,4.4,52,0.00,,,0.00,WUHU21636XXSP,2013-03-19 19:37:00,
2013-03-19 12:39:00,51.4,33.6,29.99,South,180,0.0,4.4,51,0.00,,,0.00,WUHU21636XXSP,2013-03-19 19:39:00,
2013-03-19 12:40:00,51.4,33.6,29.99,South,180,0.0,4.4,51,0.00,,,0.00,WUHU21636XXSP,2013-03-19 19:40:00,
2013-03-19 12:42:00,51.6,33.8,29.99,South,180,4.3,6.9,51,0.00,,,0.00,WUHU21636XXSP,2013-03-19 19:42:00,
2013-03-19 12:44:00,52.0,34.7,29.99,SSE,167,2.4,6.9,52,0.00,,,0.00,WUHU21636XXSP,2013-03-19 19:44:00,
2013-03-19 12:45:00,52.0,34.7,29.99,SSE,164,2.3,6.9,52,0.00,,,0.00,WUHU21636XXSP,2013-03-19 19:45:00,
2013-03-19 12:47:00,51.6,34.8,29.98,SE,135,1.7,6.9,53,0.00,,,0.00,WUHU21636XXSP,2013-03-19 19:47:00,
2013-03-19 12:50:00,51.6,35.3,29.99,SSW,202,0.0,6.9,54,0.00,,,0.00,WUHU21636XXSP,2013-03-19 19:50:00,
2013-03-19 12:52:00,52.0,35.2,29.98,SE,135,3.1,3.1,53,0.00,,,0.00,WUHU21636XXSP,2013-03-19 19:52:00,
2013-03-19 12:55:00,52.0,36.2,29.98,SE,135,3.1,3.1,55,0.00,,,0.00,WUHU21636XXSP,2013-03-19 19:55:00,
2013-03-19 12:58:00,51.6,35.8,29.98,SE,135,0.0,3.1,55,0.00,,,0.00,WUHU21636XXSP,2013-03-19 19:58:00,
2013-03-19 13:00:00,51.4,36.1,29.98,SSE,157,0.0,3.1,56,0.00,,,0.00,WUHU21636XXSP,2013-03-19 20:00:00,
2013-03-19 13:03:00,51.1,36.3,29.98,South,180,3.3,3.3,57,0.00,,,0.00,WUHU21636XXSP,2013-03-19 20:03:00,
2013-03-19 13:05:00,51.1,35.8,29.98,South,180,3.3,3.3,56,0.00,,,0.00,WUHU21636XXSP,2013-03-19 20:05:00,
2013-03-19 13:08:00,51.1,35.8,29.97,SSW,202,0.0,3.3,56,0.00,,,0.00,WUHU21636XXSP,2013-03-19 20:08:00,
2013-03-19 13:10:00,51.1,35.3,29.97,SSW,202,0.0,3.3,55,0.00,,,0.00,WUHU21636XXSP,2013-03-19 20:10:00,
2013-03-19 13:14:00,50.9,35.2,29.97,SSW,202,0.0,3.3,55,0.00,,,0.00,WUHU21636XXSP,2013-03-19 20:14:00,
2013-03-19 13:15:00,50.9,35.2,29.97,SSW,202,0.0,0.0,55,0.00,,,0.00,WUHU21636XXSP,2013-03-19 20:15:00,
2013-03-19 13:16:00,50.9,35.2,29.97,SSW,202,0.0,0.0,55,0.00,,,0.00,WUHU21636XXSP,2013-03-19 20:16:00,
2013-03-19 13:17:00,50.7,34.5,29.97,SSW,202,0.0,0.0,54,0.00,,,0.00,WUHU21636XXSP,2013-03-19 20:17:00,
2013-03-19 13:19:00,50.7,35.5,29.97,SSW,202,0.0,0.0,56,0.00,,,0.00,WUHU21636XXSP,2013-03-19 20:19:00,
2013-03-19 13:20:00,50.7,35.5,29.97,SSW,202,0.0,0.0,56,0.00,,,0.00,WUHU21636XXSP,2013-03-19 20:20:00,
2013-03-19 13:22:00,50.9,35.6,29.97,South,180,0.0,0.0,56,0.00,,,0.00,WUHU21636XXSP,2013-03-19 20:22:00,
2013-03-19 13:24:00,51.1,35.8,29.97,SSW,202,0.0,0.0,56,0.00,,,0.00,WUHU21636XXSP,2013-03-19 20:24:00,
2013-03-19 13:25:00,51.3,35.5,29.97,SE,135,0.0,0.0,55,0.00,,,0.00,WUHU21636XXSP,2013-03-19 20:25:00,
2013-03-19 13:27:00,51.4,35.6,29.97,SSE,157,0.0,0.0,55,0.00,,,0.00,WUHU21636XXSP,2013-03-19 20:27:00,
2013-03-19 13:28:00,51.4,35.6,29.97,SSE,157,0.0,0.0,55,0.00,,,0.00,WUHU21636XXSP,2013-03-19 20:28:00,
2013-03-19 13:29:00,51.6,35.8,29.96,SSE,157,0.0,0.0,55,0.00,,,0.00,WUHU21636XXSP,2013-03-19 20:29:00,
2013-03-19 13:30:00,51.6,35.8,29.96,SSE,157,0.0,0.0,55,0.00,,,0.00,WUHU21636XXSP,2013-03-19 20:30:00,
2013-03-19 13:32:00,51.6,35.3,29.96,SSE,157,0.0,0.0,54,0.00,,,0.00,WUHU21636XXSP,2013-03-19 20:32:00,
2013-03-19 13:33:00,51.6,35.3,29.96,SSE,157,0.0,0.0,54,0.00,,,0.00,WUHU21636XXSP,2013-03-19 20:33:00,
2013-03-19 13:35:00,51.4,34.6,29.96,SSE,157,0.0,0.0,53,0.00,,,0.00,WUHU21636XXSP,2013-03-19 20:35:00,
2013-03-19 13:36:00,51.4,34.1,29.96,SSE,157,0.0,0.0,52,0.00,,,0.00,WUHU21636XXSP,2013-03-19 20:36:00,
2013-03-19 13:37:00,51.4,34.1,29.96,SSE,157,0.0,0.0,52,0.00,,,0.00,WUHU21636XXSP,2013-03-19 20:37:00,
2013-03-19 13:38:00,51.3,34.0,29.96,SSE,157,0.0,0.0,52,0.00,,,0.00,WUHU21636XXSP,2013-03-19 20:38:00,
2013-03-19 13:40:00,51.1,34.3,29.96,SSE,157,0.0,0.0,53,0.00,,,0.00,WUHU21636XXSP,2013-03-19 20:40:00,
2013-03-19 13:42:00,51.1,34.3,29.96,SSE,157,0.0,0.0,53,0.00,,,0.00,WUHU21636XXSP,2013-03-19 20:42:00,
2013-03-19 13:43:00,51.1,35.3,29.96,SSE,157,0.0,0.0,55,0.00,,,0.00,WUHU21636XXSP,2013-03-19 20:43:00,
2013-03-19 13:46:00,51.1,34.9,29.96,SSE,157,0.0,0.0,54,0.00,,,0.00,WUHU21636XXSP,2013-03-19 20:46:00,
2013-03-19 13:47:00,51.1,34.9,29.96,South,180,0.0,0.0,54,0.00,,,0.00,WUHU21636XXSP,2013-03-19 20:47:00,
2013-03-19 13:48:00,51.1,34.9,29.96,South,180,0.0,0.0,54,0.00,,,0.00,WUHU21636XXSP,2013-03-19 20:48:00,
2013-03-19 13:49:00,51.1,34.3,29.96,South,180,0.0,0.0,53,0.00,,,0.00,WUHU21636XXSP,2013-03-19 20:49:00,
2013-03-19 13:51:00,51.1,34.3,29.96,South,180,0.0,0.0,53,0.00,,,0.00,WUHU21636XXSP,2013-03-19 20:51:00,
2013-03-19 13:52:00,51.1,34.3,29.96,South,180,0.0,0.0,53,0.00,,,0.00,WUHU21636XXSP,2013-03-19 20:52:00,
2013-03-19 13:53:00,50.9,34.2,29.95,South,180,0.0,0.0,53,0.00,,,0.00,WUHU21636XXSP,2013-03-19 20:53:00,
2013-03-19 13:54:00,50.9,34.2,29.95,South,180,0.0,0.0,53,0.00,,,0.00,WUHU21636XXSP,2013-03-19 20:54:00,
2013-03-19 13:56:00,50.7,34.0,29.95,SSE,157,0.0,0.0,53,0.00,,,0.00,WUHU21636XXSP,2013-03-19 20:56:00,
2013-03-19 13:57:00,50.7,34.0,29.95,South,180,0.0,0.0,53,0.00,,,0.00,WUHU21636XXSP,2013-03-19 20:57:00,
2013-03-19 13:58:00,50.7,34.0,29.95,South,180,0.0,0.0,53,0.00,,,0.00,WUHU21636XXSP,2013-03-19 20:58:00,
2013-03-19 13:59:00,50.7,34.0,29.95,South,180,0.0,0.0,53,0.00,,,0.00,WUHU21636XXSP,2013-03-19 20:59:00,
2013-03-19 14:01:00,50.7,34.5,29.95,SE,135,4.4,4.4,54,0.00,,,0.00,WUHU21636XXSP,2013-03-19 21:01:00,
2013-03-19 14:02:00,50.7,34.5,29.95,SE,135,4.4,4.4,54,0.00,,,0.00,WUHU21636XXSP,2013-03-19 21:02:00,
2013-03-19 14:03:00,50.7,34.5,29.95,SE,135,4.4,4.4,54,0.00,,,0.00,WUHU21636XXSP,2013-03-19 21:03:00,
2013-03-19 14:04:00,50.7,35.5,29.96,SSW,202,0.0,4.4,56,0.00,,,0.00,WUHU21636XXSP,2013-03-19 21:04:00,
2013-03-19 14:07:00,50.7,35.0,29.95,SSW,202,0.0,4.4,55,0.00,,,0.00,WUHU21636XXSP,2013-03-19 21:07:00,
2013-03-19 14:08:00,50.7,34.5,29.96,SSW,202,0.0,4.4,54,0.00,,,0.00,WUHU21636XXSP,2013-03-19 21:08:00,
2013-03-19 14:09:00,50.7,34.5,29.95,SSW,202,0.0,4.4,54,0.00,,,0.00,WUHU21636XXSP,2013-03-19 21:09:00,
2013-03-19 14:12:00,50.5,35.3,29.96,SW,225,0.0,0.0,56,0.00,,,0.00,WUHU21636XXSP,2013-03-19 21:12:00,
2013-03-19 14:13:00,50.7,35.5,29.96,SSW,202,0.0,0.0,56,0.00,,,0.00,WUHU21636XXSP,2013-03-19 21:13:00,
2013-03-19 14:15:00,50.7,35.5,29.96,SSW,202,0.0,0.0,56,0.00,,,0.00,WUHU21636XXSP,2013-03-19 21:15:00,
2013-03-19 14:17:00,50.7,35.0,29.96,SSW,202,0.0,0.0,55,0.00,,,0.00,WUHU21636XXSP,2013-03-19 21:17:00,
2013-03-19 14:18:00,50.7,35.0,29.96,SSW,202,0.0,0.0,55,0.00,,,0.00,WUHU21636XXSP,2013-03-19 21:18:00,
2013-03-19 14:20:00,50.7,35.5,29.96,SSW,202,0.0,0.0,56,0.00,,,0.00,WUHU21636XXSP,2013-03-19 21:20:00,
2013-03-19 14:22:00,50.9,35.6,29.96,SE,135,0.0,0.0,56,0.00,,,0.00,WUHU21636XXSP,2013-03-19 21:22:00,
2013-03-19 14:23:00,50.9,35.2,29.95,SSW,202,0.0,0.0,55,0.00,,,0.00,WUHU21636XXSP,2013-03-19 21:23:00,
2013-03-19 14:25:00,50.9,35.2,29.95,SSW,202,0.0,0.0,55,0.00,,,0.00,WUHU21636XXSP,2013-03-19 21:25:00,
2013-03-19 14:27:00,50.7,35.5,29.95,South,180,0.0,0.0,56,0.00,,,0.00,WUHU21636XXSP,2013-03-19 21:27:00,
2013-03-19 14:28:00,50.7,35.5,29.95,South,180,0.0,0.0,56,0.00,,,0.00,WUHU21636XXSP,2013-03-19 21:28:00,
2013-03-19 14:30:00,50.5,35.3,29.95,South,180,0.0,0.0,56,0.00,,,0.00,WUHU21636XXSP,2013-03-19 21:30:00,
2013-03-19 14:33:00,50.5,35.3,29.95,South,180,0.0,0.0,56,0.00,,,0.00,WUHU21636XXSP,2013-03-19 21:33:00,
2013-03-19 14:34:00,50.5,36.2,29.95,South,180,2.2,2.2,58,0.00,,,0.00,WUHU21636XXSP,2013-03-19 21:34:00,
2013-03-19 14:35:00,50.5,36.2,29.95,South,180,2.2,2.2,58,0.00,,,0.00,WUHU21636XXSP,2013-03-19 21:35:00,
2013-03-19 14:38:00,50.2,37.7,29.95,South,180,0.0,2.2,62,0.00,,,0.00,WUHU21636XXSP,2013-03-19 21:38:00,
2013-03-19 14:39:00,50.2,37.7,29.95,South,180,0.0,2.2,62,0.00,,,0.00,WUHU21636XXSP,2013-03-19 21:39:00,
2013-03-19 14:40:00,50.0,38.8,29.95,South,180,0.0,2.2,65,0.00,,,0.00,WUHU21636XXSP,2013-03-19 21:40:00,
2013-03-19 14:43:00,49.6,38.4,29.95,South,180,0.0,2.2,65,0.00,,,0.00,WUHU21636XXSP,2013-03-19 21:43:00,
2013-03-19 14:44:00,49.6,38.4,29.95,South,180,0.0,2.2,65,0.00,,,0.00,WUHU21636XXSP,2013-03-19 21:44:00,
2013-03-19 14:45:00,49.5,39.5,29.95,South,180,0.0,2.2,68,0.00,,,0.00,WUHU21636XXSP,2013-03-19 21:45:00,
2013-03-19 14:48:00,49.3,38.9,29.94,South,180,0.0,0.0,67,0.00,,,0.00,WUHU21636XXSP,2013-03-19 21:48:00,
2013-03-19 14:49:00,49.1,39.5,29.94,ENE,67,0.0,0.0,69,0.00,,,0.00,WUHU21636XXSP,2013-03-19 21:49:00,
2013-03-19 14:50:00,49.1,39.5,29.94,ENE,67,0.0,0.0,69,0.00,,,0.00,WUHU21636XXSP,2013-03-19 21:50:00,
2013-03-19 14:53:00,48.7,39.8,29.94,SE,135,0.0,0.0,71,0.00,,,0.00,WUHU21636XXSP,2013-03-19 21:53:00,
2013-03-19 14:54:00,48.7,39.8,29.94,SE,135,0.0,0.0,71,0.00,,,0.00,WUHU21636XXSP,2013-03-19 21:54:00,
2013-03-19 14:55:00,48.7,40.2,29.94,SE,135,0.0,0.0,72,0.00,,,0.00,WUHU21636XXSP,2013-03-19 21:55:00,
2013-03-19 14:58:00,48.4,39.9,29.93,SE,135,0.0,0.0,72,0.00,,,0.00,WUHU21636XXSP,2013-03-19 21:58:00,
2013-03-19 14:59:00,48.4,39.9,29.93,SE,135,0.0,0.0,72,0.00,,,0.00,WUHU21636XXSP,2013-03-19 21:59:00,
2013-03-19 15:02:00,48.4,41.0,29.93,SE,135,0.0,0.0,75,0.00,,,0.00,WUHU21636XXSP,2013-03-19 22:02:00,
2013-03-19 15:04:00,48.4,41.0,29.93,SE,135,0.0,0.0,75,0.00,,,0.00,WUHU21636XXSP,2013-03-19 22:04:00,
2013-03-19 15:07:00,48.0,40.9,29.93,SE,135,0.0,0.0,76,0.00,,,0.00,WUHU21636XXSP,2013-03-19 22:07:00,
2013-03-19 15:09:00,48.0,41.9,29.93,SE,135,0.0,0.0,79,0.00,,,0.00,WUHU21636XXSP,2013-03-19 22:09:00,
2013-03-19 15:12:00,47.8,40.7,29.93,SE,135,0.0,0.0,76,0.00,,,0.00,WUHU21636XXSP,2013-03-19 22:12:00,
2013-03-19 15:14:00,47.5,40.4,29.93,SE,135,0.0,0.0,76,0.00,,,0.00,WUHU21636XXSP,2013-03-19 22:14:00,
2013-03-19 15:18:00,47.1,41.1,29.93,SSE,157,0.0,0.0,79,0.00,,,0.00,WUHU21636XXSP,2013-03-19 22:18:00,
2013-03-19 15:19:00,46.9,40.9,29.93,SSE,157,0.0,0.0,79,0.00,,,0.00,WUHU21636XXSP,2013-03-19 22:19:00,
2013-03-19 15:20:00,46.9,40.9,29.93,SSE,157,0.0,0.0,79,0.00,,,0.00,WUHU21636XXSP,2013-03-19 22:20:00,
2013-03-19 15:23:00,46.6,41.5,29.93,SSE,157,0.0,0.0,82,0.00,,,0.00,WUHU21636XXSP,2013-03-19 22:23:00,
2013-03-19 15:24:00,46.4,41.3,29.92,SSE,157,0.0,0.0,82,0.00,,,0.00,WUHU21636XXSP,2013-03-19 22:24:00,
2013-03-19 15:25:00,46.4,41.3,29.92,SSE,157,0.0,0.0,82,0.00,,,0.00,WUHU21636XXSP,2013-03-19 22:25:00,
2013-03-19 15:28:00,45.9,41.5,29.92,SSE,157,0.0,0.0,85,0.00,,,0.00,WUHU21636XXSP,2013-03-19 22:28:00,
2013-03-19 15:29:00,45.5,40.8,29.92,SSE,157,0.0,0.0,83,0.00,,,0.00,WUHU21636XXSP,2013-03-19 22:29:00,
2013-03-19 15:30:00,45.5,40.8,29.92,SSE,157,0.0,0.0,83,0.02,,,0.02,WUHU21636XXSP,2013-03-19 22:30:00,
2013-03-19 15:33:00,45.3,40.9,29.92,SSE,157,0.0,0.0,85,0.02,,,0.02,WUHU21636XXSP,2013-03-19 22:33:00,
2013-03-19 15:35:00,45.1,41.0,29.93,SSE,157,0.0,0.0,86,0.02,,,0.02,WUHU21636XXSP,2013-03-19 22:35:00,
2013-03-19 15:39:00,44.8,41.0,29.92,SSE,157,0.0,0.0,87,0.02,,,0.02,WUHU21636XXSP,2013-03-19 22:39:00,
2013-03-19 15:40:00,44.8,41.0,29.92,SSE,157,0.0,0.0,87,0.02,,,0.02,WUHU21636XXSP,2013-03-19 22:40:00,
2013-03-19 15:44:00,44.4,40.9,29.92,SSE,157,0.0,0.0,88,0.02,,,0.02,WUHU21636XXSP,2013-03-19 22:44:00,
2013-03-19 15:45:00,44.4,40.9,29.92,SSE,157,0.0,0.0,88,0.02,,,0.02,WUHU21636XXSP,2013-03-19 22:45:00,
2013-03-19 15:49:00,44.2,41.3,29.92,SSE,157,0.0,0.0,90,0.02,,,0.02,WUHU21636XXSP,2013-03-19 22:49:00,
2013-03-19 15:50:00,44.2,41.3,29.92,SSE,157,0.0,0.0,90,0.02,,,0.02,WUHU21636XXSP,2013-03-19 22:50:00,
2013-03-19 15:51:00,44.2,41.3,29.92,SSE,157,0.0,0.0,90,0.02,,,0.02,WUHU21636XXSP,2013-03-19 22:51:00,
2013-03-19 15:54:00,44.4,41.5,29.92,SSE,157,0.0,0.0,90,0.02,,,0.02,WUHU21636XXSP,2013-03-19 22:54:00,
2013-03-19 15:55:00,44.2,41.3,29.92,SSE,157,0.0,0.0,90,0.02,,,0.02,WUHU21636XXSP,2013-03-19 22:55:00,
2013-03-19 15:56:00,44.2,41.3,29.91,SSE,157,0.0,0.0,90,0.02,,,0.02,WUHU21636XXSP,2013-03-19 22:56:00,
2013-03-19 15:59:00,44.2,41.3,29.92,SSE,157,0.0,0.0,90,0.02,,,0.02,WUHU21636XXSP,2013-03-19 22:59:00,
2013-03-19 16:00:00,44.2,41.3,29.91,SSE,157,0.0,0.0,90,0.02,,,0.02,WUHU21636XXSP,2013-03-19 23:00:00,
2013-03-19 16:01:00,44.2,41.3,29.91,SSE,157,0.0,0.0,90,0.02,,,0.02,WUHU21636XXSP,2013-03-19 23:01:00,
2013-03-19 16:04:00,44.2,41.6,29.92,SSE,157,0.0,0.0,91,0.04,,,0.04,WUHU21636XXSP,2013-03-19 23:04:00,
2013-03-19 16:05:00,44.2,41.6,29.91,SSE,157,0.0,0.0,91,0.04,,,0.04,WUHU21636XXSP,2013-03-19 23:05:00,
2013-03-19 16:06:00,44.1,41.5,29.92,SSE,157,0.0,0.0,91,0.04,,,0.04,WUHU21636XXSP,2013-03-19 23:06:00,
2013-03-19 16:09:00,44.2,41.6,29.91,SSE,157,0.0,0.0,91,0.04,,,0.04,WUHU21636XXSP,2013-03-19 23:09:00,
2013-03-19 16:10:00,44.1,41.5,29.91,SSE,157,0.0,0.0,91,0.04,,,0.04,WUHU21636XXSP,2013-03-19 23:10:00,
2013-03-19 16:11:00,44.1,41.5,29.91,SSE,157,0.0,0.0,91,0.04,,,0.04,WUHU21636XXSP,2013-03-19 23:11:00,
2013-03-19 16:12:00,44.1,41.5,29.91,SSE,157,0.0,0.0,91,0.04,,,0.04,WUHU21636XXSP,2013-03-19 23:12:00,
2013-03-19 16:15:00,43.9,41.3,29.91,SSE,157,0.0,0.0,91,0.04,,,0.04,WUHU21636XXSP,2013-03-19 23:15:00,
2013-03-19 16:17:00,43.9,41.3,29.91,South,180,0.0,0.0,91,0.04,,,0.04,WUHU21636XXSP,2013-03-19 23:17:00,
2013-03-19 16:20:00,43.9,41.3,29.91,South,180,0.0,0.0,91,0.04,,,0.04,WUHU21636XXSP,2013-03-19 23:20:00,
2013-03-19 16:21:00,43.9,41.3,29.91,South,180,0.0,0.0,91,0.04,,,0.04,WUHU21636XXSP,2013-03-19 23:21:00,
2013-03-19 16:22:00,43.9,41.3,29.91,South,180,0.0,0.0,91,0.04,,,0.04,WUHU21636XXSP,2013-03-19 23:22:00,
2013-03-19 16:25:00,43.9,41.3,29.91,South,180,0.0,0.0,91,0.06,,,0.06,WUHU21636XXSP,2013-03-19 23:25:00,
2013-03-19 16:27:00,43.9,41.3,29.91,South,180,0.0,0.0,91,0.06,,,0.06,WUHU21636XXSP,2013-03-19 23:27:00,
2013-03-19 16:30:00,43.9,41.3,29.91,South,180,0.0,0.0,91,0.04,,,0.06,WUHU21636XXSP,2013-03-19 23:30:00,
2013-03-19 16:32:00,43.9,41.6,29.91,South,180,0.0,0.0,92,0.04,,,0.06,WUHU21636XXSP,2013-03-19 23:32:00,
2013-03-19 16:33:00,43.9,41.3,29.91,South,180,0.0,0.0,91,0.04,,,0.06,WUHU21636XXSP,2013-03-19 23:33:00,
2013-03-19 16:35:00,43.9,41.6,29.90,South,180,0.0,0.0,92,0.04,,,0.06,WUHU21636XXSP,2013-03-19 23:35:00,
2013-03-19 16:37:00,43.9,41.3,29.90,South,180,0.0,0.0,91,0.04,,,0.06,WUHU21636XXSP,2013-03-19 23:37:00,
2013-03-19 16:38:00,43.9,41.3,29.90,South,180,0.0,0.0,91,0.04,,,0.06,WUHU21636XXSP,2013-03-19 23:38:00,
2013-03-19 16:40:00,43.9,41.6,29.90,South,180,0.0,0.0,92,0.04,,,0.06,WUHU21636XXSP,2013-03-19 23:40:00,
2013-03-19 16:42:00,43.9,41.6,29.90,South,180,0.0,0.0,92,0.04,,,0.06,WUHU21636XXSP,2013-03-19 23:42:00,
2013-03-19 16:43:00,43.9,41.6,29.91,South,180,0.0,0.0,92,0.04,,,0.06,WUHU21636XXSP,2013-03-19 23:43:00,
2013-03-19 16:45:00,43.9,41.6,29.90,South,180,0.0,0.0,92,0.06,,,0.08,WUHU21636XXSP,2013-03-19 23:45:00,
2013-03-19 16:48:00,43.9,41.6,29.90,South,180,0.0,0.0,92,0.06,,,0.08,WUHU21636XXSP,2013-03-19 23:48:00,
2013-03-19 16:50:00,43.7,41.4,29.90,South,180,0.0,0.0,92,0.06,,,0.08,WUHU21636XXSP,2013-03-19 23:50:00,
2013-03-19 16:53:00,43.9,41.9,29.90,South,180,0.0,0.0,93,0.06,,,0.08,WUHU21636XXSP,2013-03-19 23:53:00,
2013-03-19 16:55:00,43.7,41.4,29.90,SE,135,0.0,0.0,92,0.06,,,0.08,WUHU21636XXSP,2013-03-19 23:55:00,
2013-03-19 16:58:00,43.7,41.4,29.90,SE,135,0.0,0.0,92,0.06,,,0.08,WUHU21636XXSP,2013-03-19 23:58:00,
2013-03-19 16:59:00,43.7,41.4,29.89,SE,135,0.0,0.0,92,0.06,,,0.08,WUHU21636XXSP,2013-03-19 23:59:00,
2013-03-19 17:00:00,43.5,41.5,29.89,SE,135,0.0,0.0,93,0.06,,,0.08,WUHU21636XXSP,2013-03-20 00:00:00,
2013-03-19 17:03:00,43.7,41.7,29.89,SE,135,0.0,0.0,93,0.04,,,0.08,WUHU21636XXSP,2013-03-20 00:03:00,
2013-03-19 17:04:00,43.7,41.7,29.89,SE,135,0.0,0.0,93,0.04,,,0.08,WUHU21636XXSP,2013-03-20 00:04:00,
2013-03-19 17:05:00,43.7,41.7,29.89,SE,135,0.0,0.0,93,0.04,,,0.08,WUHU21636XXSP,2013-03-20 00:05:00,
2013-03-19 17:08:00,43.7,41.4,29.89,SE,135,0.0,0.0,92,0.06,,,0.10,WUHU21636XXSP,2013-03-20 00:08:00,
2013-03-19 17:09:00,43.7,41.4,29.89,SE,135,0.0,0.0,92,0.06,,,0.10,WUHU21636XXSP,2013-03-20 00:09:00,
2013-03-19 17:10:00,43.7,41.4,29.89,SE,135,0.0,0.0,92,0.06,,,0.10,WUHU21636XXSP,2013-03-20 00:10:00,
2013-03-19 17:13:00,43.5,41.2,29.89,SE,135,0.0,0.0,92,0.06,,,0.10,WUHU21636XXSP,2013-03-20 00:13:00,
2013-03-19 17:14:00,43.5,41.2,29.89,SE,135,0.0,0.0,92,0.06,,,0.10,WUHU21636XXSP,2013-03-20 00:14:00,
2013-03-19 17:16:00,43.5,41.5,29.89,SSE,157,0.0,0.0,93,0.06,,,0.10,WUHU21636XXSP,2013-03-20 00:16:00,
2013-03-19 17:18:00,43.3,41.3,29.89,SSE,157,0.0,0.0,93,0.08,,,0.12,WUHU21636XXSP,2013-03-20 00:18:00,
2013-03-19 17:19:00,43.3,41.3,29.89,SSE,157,0.0,0.0,93,0.08,,,0.12,WUHU21636XXSP,2013-03-20 00:19:00,
2013-03-19 17:21:00,43.3,41.3,29.88,SSE,157,0.0,0.0,93,0.08,,,0.12,WUHU21636XXSP,2013-03-20 00:21:00,
2013-03-19 17:23:00,43.3,41.3,29.88,SSE,157,0.0,0.0,93,0.06,,,0.12,WUHU21636XXSP,2013-03-20 00:23:00,
2013-03-19 17:24:00,43.3,41.3,29.88,SSE,157,0.0,0.0,93,0.06,,,0.12,WUHU21636XXSP,2013-03-20 00:24:00,
2013-03-19 17:26:00,43.3,41.3,29.88,SSE,157,0.0,0.0,93,0.06,,,0.12,WUHU21636XXSP,2013-03-20 00:26:00,
2013-03-19 17:29:00,43.3,41.3,29.88,SSE,157,0.0,0.0,93,0.06,,,0.12,WUHU21636XXSP,2013-03-20 00:29:00,
2013-03-19 17:31:00,43.3,41.3,29.88,SSE,157,0.0,0.0,93,0.06,,,0.12,WUHU21636XXSP,2013-03-20 00:31:00,
2013-03-19 17:34:00,43.2,41.2,29.87,SSE,157,0.0,0.0,93,0.06,,,0.12,WUHU21636XXSP,2013-03-20 00:34:00,
2013-03-19 17:36:00,43.2,41.2,29.87,SSE,157,0.0,0.0,93,0.06,,,0.12,WUHU21636XXSP,2013-03-20 00:36:00,
2013-03-19 17:39:00,43.2,41.2,29.87,SSE,157,0.0,0.0,93,0.06,,,0.12,WUHU21636XXSP,2013-03-20 00:39:00,
2013-03-19 17:42:00,43.2,41.5,29.87,SSE,157,0.0,0.0,94,0.08,,,0.14,WUHU21636XXSP,2013-03-20 00:42:00,
2013-03-19 17:44:00,43.0,41.3,29.87,SSE,157,0.0,0.0,94,0.08,,,0.14,WUHU21636XXSP,2013-03-20 00:44:00,
2013-03-19 17:45:00,43.0,41.3,29.87,SSE,157,0.0,0.0,94,0.08,,,0.14,WUHU21636XXSP,2013-03-20 00:45:00,
2013-03-19 17:47:00,43.2,41.5,29.86,SSE,157,0.0,0.0,94,0.06,,,0.14,WUHU21636XXSP,2013-03-20 00:47:00,
2013-03-19 17:49:00,43.0,41.3,29.86,SSE,157,0.0,0.0,94,0.06,,,0.14,WUHU21636XXSP,2013-03-20 00:49:00,
2013-03-19 17:50:00,43.0,41.3,29.86,SSE,157,0.0,0.0,94,0.06,,,0.14,WUHU21636XXSP,2013-03-20 00:50:00,
2013-03-19 17:52:00,43.0,41.3,29.86,SSE,157,0.0,0.0,94,0.06,,,0.14,WUHU21636XXSP,2013-03-20 00:52:00,
2013-03-19 17:54:00,43.2,41.5,29.86,SSE,157,0.0,0.0,94,0.06,,,0.14,WUHU21636XXSP,2013-03-20 00:54:00,
2013-03-19 17:55:00,43.2,41.5,29.86,SSE,157,0.0,0.0,94,0.06,,,0.14,WUHU21636XXSP,2013-03-20 00:55:00,
2013-03-19 17:58:00,43.0,41.3,29.86,SSE,157,0.0,0.0,94,0.06,,,0.14,WUHU21636XXSP,2013-03-20 00:58:00,
2013-03-19 17:59:00,43.0,41.3,29.86,SSE,157,0.0,0.0,94,0.06,,,0.14,WUHU21636XXSP,2013-03-20 00:59:00,
2013-03-19 18:00:00,43.0,41.3,29.86,SSE,157,0.0,0.0,94,0.06,,,0.14,WUHU21636XXSP,2013-03-20 01:00:00,
2013-03-19 18:03:00,42.8,41.4,29.86,SSE,157,0.0,0.0,95,0.08,,,0.16,WUHU21636XXSP,2013-03-20 01:03:00,
2013-03-19 18:04:00,42.8,41.4,29.85,SSE,157,0.0,0.0,95,0.08,,,0.16,WUHU21636XXSP,2013-03-20 01:04:00,
2013-03-19 18:05:00,42.8,41.4,29.85,SSE,157,0.0,0.0,95,0.08,,,0.16,WUHU21636XXSP,2013-03-20 01:05:00,
2013-03-19 18:08:00,43.0,41.6,29.85,SSE,157,0.0,0.0,95,0.06,,,0.16,WUHU21636XXSP,2013-03-20 01:08:00,
2013-03-19 18:09:00,42.8,41.4,29.85,SSE,157,0.0,0.0,95,0.06,,,0.16,WUHU21636XXSP,2013-03-20 01:09:00,
2013-03-19 18:10:00,42.8,41.4,29.85,SSE,157,0.0,0.0,95,0.06,,,0.16,WUHU21636XXSP,2013-03-20 01:10:00,
2013-03-19 18:13:00,42.8,41.4,29.84,SSE,157,0.0,0.0,95,0.08,,,0.18,WUHU21636XXSP,2013-03-20 01:13:00,
2013-03-19 18:14:00,42.8,41.4,29.84,SSE,157,0.0,0.0,95,0.08,,,0.18,WUHU21636XXSP,2013-03-20 01:14:00,
2013-03-19 18:15:00,42.8,41.4,29.84,SSE,157,0.0,0.0,95,0.08,,,0.18,WUHU21636XXSP,2013-03-20 01:15:00,
2013-03-19 18:18:00,42.6,41.2,29.84,SSE,157,0.0,0.0,95,0.06,,,0.18,WUHU21636XXSP,2013-03-20 01:18:00,
2013-03-19 18:19:00,42.6,41.2,29.84,SSE,157,0.0,0.0,95,0.06,,,0.18,WUHU21636XXSP,2013-03-20 01:19:00,
2013-03-19 18:20:00,42.6,41.2,29.84,SSE,157,0.0,0.0,95,0.06,,,0.18,WUHU21636XXSP,2013-03-20 01:20:00,
2013-03-19 18:23:00,42.6,41.2,29.84,SSE,157,0.0,0.0,95,0.08,,,0.20,WUHU21636XXSP,2013-03-20 01:23:00,
2013-03-19 18:24:00,42.6,41.2,29.84,SSE,157,0.0,0.0,95,0.08,,,0.20,WUHU21636XXSP,2013-03-20 01:24:00,
2013-03-19 18:25:00,42.6,41.2,29.84,SSE,157,0.0,0.0,95,0.08,,,0.20,WUHU21636XXSP,2013-03-20 01:25:00,
2013-03-19 18:28:00,42.6,41.2,29.83,SSE,157,0.0,0.0,95,0.08,,,0.20,WUHU21636XXSP,2013-03-20 01:28:00,
2013-03-19 18:29:00,42.6,41.2,29.83,SSE,157,0.0,0.0,95,0.08,,,0.20,WUHU21636XXSP,2013-03-20 01:29:00,
2013-03-19 18:30:00,42.6,41.2,29.83,SSE,157,0.0,0.0,95,0.08,,,0.20,WUHU21636XXSP,2013-03-20 01:30:00,
2013-03-19 18:31:00,42.6,41.2,29.83,SSE,157,0.0,0.0,95,0.08,,,0.20,WUHU21636XXSP,2013-03-20 01:31:00,
2013-03-19 18:34:00,42.4,41.0,29.83,SSE,157,0.0,0.0,95,0.08,,,0.20,WUHU21636XXSP,2013-03-20 01:34:00,
2013-03-19 18:35:00,42.4,41.0,29.83,SSE,157,0.0,0.0,95,0.08,,,0.20,WUHU21636XXSP,2013-03-20 01:35:00,
2013-03-19 18:36:00,42.4,41.0,29.83,SSE,157,0.0,0.0,95,0.08,,,0.20,WUHU21636XXSP,2013-03-20 01:36:00,
2013-03-19 18:39:00,42.4,41.0,29.83,SSE,157,0.0,0.0,95,0.06,,,0.20,WUHU21636XXSP,2013-03-20 01:39:00,
2013-03-19 18:40:00,42.4,41.0,29.83,SSE,157,0.0,0.0,95,0.06,,,0.20,WUHU21636XXSP,2013-03-20 01:40:00,
2013-03-19 18:41:00,42.4,41.0,29.83,SSE,157,0.0,0.0,95,0.06,,,0.20,WUHU21636XXSP,2013-03-20 01:41:00,
2013-03-19 18:44:00,42.4,41.0,29.83,SSE,157,0.0,0.0,95,0.08,,,0.22,WUHU21636XXSP,2013-03-20 01:44:00,
2013-03-19 18:45:00,42.4,41.0,29.83,SSE,157,0.0,0.0,95,0.08,,,0.22,WUHU21636XXSP,2013-03-20 01:45:00,
2013-03-19 18:47:00,42.4,41.0,29.83,SSE,157,0.0,0.0,95,0.08,,,0.22,WUHU21636XXSP,2013-03-20 01:47:00,
2013-03-19 18:49:00,42.3,41.1,29.83,SSE,157,0.0,0.0,96,0.08,,,0.22,WUHU21636XXSP,2013-03-20 01:49:00,
2013-03-19 18:50:00,42.3,41.1,29.83,SSE,157,0.0,0.0,96,0.08,,,0.22,WUHU21636XXSP,2013-03-20 01:50:00,
2013-03-19 18:52:00,42.3,41.1,29.82,SSE,157,0.0,0.0,96,0.08,,,0.22,WUHU21636XXSP,2013-03-20 01:52:00,
2013-03-19 18:54:00,42.3,41.1,29.82,SSE,157,0.0,0.0,96,0.11,,,0.25,WUHU21636XXSP,2013-03-20 01:54:00,
2013-03-19 18:55:00,42.3,41.1,29.82,SSE,157,0.0,0.0,96,0.11,,,0.25,WUHU21636XXSP,2013-03-20 01:55:00,
2013-03-19 18:58:00,42.3,41.1,29.82,SSE,157,0.0,0.0,96,0.11,,,0.25,WUHU21636XXSP,2013-03-20 01:58:00,
2013-03-19 18:59:00,42.3,41.1,29.82,SSE,157,0.0,0.0,96,0.11,,,0.25,WUHU21636XXSP,2013-03-20 01:59:00,
2013-03-19 19:00:00,42.3,41.1,29.81,SSE,157,0.0,0.0,96,0.11,,,0.25,WUHU21636XXSP,2013-03-20 02:00:00,
2013-03-19 19:03:00,42.4,41.2,29.82,SSE,157,0.0,0.0,96,0.09,,,0.25,WUHU21636XXSP,2013-03-20 02:03:00,
2013-03-19 19:04:00,42.4,41.2,29.82,SSE,157,0.0,0.0,96,0.09,,,0.25,WUHU21636XXSP,2013-03-20 02:04:00,
2013-03-19 19:05:00,42.4,41.2,29.81,SSE,157,0.0,0.0,96,0.09,,,0.25,WUHU21636XXSP,2013-03-20 02:05:00,
2013-03-19 19:08:00,42.4,41.2,29.81,SSE,157,0.0,0.0,96,0.11,,,0.27,WUHU21636XXSP,2013-03-20 02:08:00,
2013-03-19 19:10:00,42.3,41.1,29.81,SSE,157,0.0,0.0,96,0.11,,,0.27,WUHU21636XXSP,2013-03-20 02:10:00,
2013-03-19 19:11:00,42.3,41.1,29.81,SSE,157,0.0,0.0,96,0.09,,,0.27,WUHU21636XXSP,2013-03-20 02:11:00,
2013-03-19 19:13:00,42.3,41.1,29.80,SSE,157,0.0,0.0,96,0.09,,,0.27,WUHU21636XXSP,2013-03-20 02:13:00,
2013-03-19 19:15:00,42.3,41.1,29.80,SSE,157,0.0,0.0,96,0.09,,,0.27,WUHU21636XXSP,2013-03-20 02:15:00,
2013-03-19 19:17:00,42.3,41.1,29.80,SSE,157,0.0,0.0,96,0.09,,,0.27,WUHU21636XXSP,2013-03-20 02:17:00,
2013-03-19 19:18:00,42.3,41.1,29.80,SSE,157,0.0,0.0,96,0.09,,,0.27,WUHU21636XXSP,2013-03-20 02:18:00,
2013-03-19 19:20:00,42.3,41.1,29.80,SSE,157,0.0,0.0,96,0.09,,,0.27,WUHU21636XXSP,2013-03-20 02:20:00,
2013-03-19 19:22:00,42.3,41.1,29.80,SSE,157,0.0,0.0,96,0.07,,,0.27,WUHU21636XXSP,2013-03-20 02:22:00,
2013-03-19 19:24:00,42.3,41.1,29.79,SSE,157,0.0,0.0,96,0.07,,,0.27,WUHU21636XXSP,2013-03-20 02:24:00,
2013-03-19 19:25:00,42.3,41.1,29.79,SSE,157,0.0,0.0,96,0.07,,,0.27,WUHU21636XXSP,2013-03-20 02:25:00,
2013-03-19 19:28:00,42.3,41.1,29.78,SSE,157,0.0,0.0,96,0.09,,,0.29,WUHU21636XXSP,2013-03-20 02:28:00,
2013-03-19 19:29:00,42.3,41.1,29.78,ESE,112,0.0,0.0,96,0.09,,,0.29,WUHU21636XXSP,2013-03-20 02:29:00,
2013-03-19 19:30:00,42.3,41.1,29.78,ESE,112,0.0,0.0,96,0.09,,,0.29,WUHU21636XXSP,2013-03-20 02:30:00,
2013-03-19 19:33:00,42.3,41.1,29.78,SSE,157,0.0,0.0,96,0.09,,,0.29,WUHU21636XXSP,2013-03-20 02:33:00,
2013-03-19 19:34:00,42.3,41.1,29.78,SSE,157,0.0,0.0,96,0.09,,,0.29,WUHU21636XXSP,2013-03-20 02:34:00,
2013-03-19 19:35:00,42.3,41.1,29.78,SSE,157,3.8,3.8,96,0.09,,,0.29,WUHU21636XXSP,2013-03-20 02:35:00,
2013-03-19 19:38:00,42.3,41.1,29.78,SSE,157,3.8,3.8,96,0.09,,,0.29,WUHU21636XXSP,2013-03-20 02:38:00,
2013-03-19 19:39:00,42.3,41.1,29.78,SSE,157,3.8,3.8,96,0.09,,,0.29,WUHU21636XXSP,2013-03-20 02:39:00,
2013-03-19 19:40:00,42.1,40.9,29.78,South,180,0.0,3.8,96,0.09,,,0.29,WUHU21636XXSP,2013-03-20 02:40:00,
2013-03-19 19:43:00,42.3,41.1,29.78,South,180,0.0,3.8,96,0.09,,,0.29,WUHU21636XXSP,2013-03-20 02:43:00,
2013-03-19 19:44:00,42.3,41.1,29.78,South,180,0.0,3.8,96,0.07,,,0.29,WUHU21636XXSP,2013-03-20 02:44:00,
2013-03-19 19:45:00,42.3,41.1,29.78,South,180,0.0,3.8,96,0.07,,,0.29,WUHU21636XXSP,2013-03-20 02:45:00,
2013-03-19 19:48:00,42.1,40.9,29.78,South,180,1.3,1.3,96,0.07,,,0.29,WUHU21636XXSP,2013-03-20 02:48:00,
2013-03-19 19:49:00,42.1,40.9,29.78,SSE,166,0.9,1.3,96,0.09,,,0.31,WUHU21636XXSP,2013-03-20 02:49:00,
2013-03-19 19:50:00,42.1,40.9,29.78,SSE,157,1.5,1.5,96,0.09,,,0.31,WUHU21636XXSP,2013-03-20 02:50:00,
2013-03-19 19:51:00,42.1,40.9,29.78,SSE,157,1.5,1.5,96,0.09,,,0.31,WUHU21636XXSP,2013-03-20 02:51:00,
2013-03-19 19:53:00,42.1,40.9,29.77,SSE,157,1.5,1.5,96,0.09,,,0.31,WUHU21636XXSP,2013-03-20 02:53:00,
2013-03-19 19:54:00,42.1,40.9,29.78,South,180,0.0,1.5,96,0.06,,,0.31,WUHU21636XXSP,2013-03-20 02:54:00,
2013-03-19 19:55:00,42.1,40.9,29.77,South,180,2.2,2.2,96,0.06,,,0.31,WUHU21636XXSP,2013-03-20 02:55:00,
2013-03-19 19:56:00,42.1,40.9,29.77,South,180,2.2,2.2,96,0.06,,,0.31,WUHU21636XXSP,2013-03-20 02:56:00,
2013-03-19 19:58:00,42.1,40.9,29.77,South,180,2.2,2.2,96,0.06,,,0.31,WUHU21636XXSP,2013-03-20 02:58:00,
2013-03-19 19:59:00,42.1,40.9,29.77,SSE,157,0.0,2.2,96,0.06,,,0.31,WUHU21636XXSP,2013-03-20 02:59:00,
2013-03-19 20:00:00,42.1,40.9,29.77,SSE,157,0.0,2.2,96,0.06,,,0.31,WUHU21636XXSP,2013-03-20 03:00:00,
2013-03-19 20:02:00,42.1,40.9,29.77,SSE,157,0.0,2.2,96,0.06,,,0.31,WUHU21636XXSP,2013-03-20 03:02:00,
2013-03-19 20:04:00,42.1,40.9,29.77,SSE,157,0.0,2.2,96,0.06,,,0.31,WUHU21636XXSP,2013-03-20 03:04:00,
2013-03-19 20:05:00,42.1,40.9,29.77,SSE,157,0.0,2.2,96,0.04,,,0.31,WUHU21636XXSP,2013-03-20 03:05:00,
2013-03-19 20:07:00,42.1,40.9,29.77,SSE,157,0.0,0.0,96,0.04,,,0.31,WUHU21636XXSP,2013-03-20 03:07:00,
2013-03-19 20:09:00,42.1,40.9,29.77,South,180,0.0,0.0,96,0.04,,,0.31,WUHU21636XXSP,2013-03-20 03:09:00,
2013-03-19 20:10:00,42.3,41.1,29.77,South,180,0.0,0.0,96,0.06,,,0.33,WUHU21636XXSP,2013-03-20 03:10:00,
2013-03-19 20:11:00,42.3,41.1,29.76,South,180,0.0,0.0,96,0.06,,,0.33,WUHU21636XXSP,2013-03-20 03:11:00,
2013-03-19 20:12:00,42.1,40.9,29.76,South,180,0.0,0.0,96,0.06,,,0.33,WUHU21636XXSP,2013-03-20 03:12:00,
2013-03-19 20:14:00,42.1,40.9,29.76,South,180,0.0,0.0,96,0.06,,,0.33,WUHU21636XXSP,2013-03-20 03:14:00,
2013-03-19 20:15:00,42.1,40.9,29.77,South,180,0.0,0.0,96,0.06,,,0.33,WUHU21636XXSP,2013-03-20 03:15:00,
2013-03-19 20:16:00,42.1,40.9,29.76,South,180,0.0,0.0,96,0.06,,,0.33,WUHU21636XXSP,2013-03-20 03:16:00,
2013-03-19 20:18:00,42.1,40.9,29.76,SSE,157,0.0,0.0,96,0.06,,,0.33,WUHU21636XXSP,2013-03-20 03:18:00,
2013-03-19 20:19:00,42.1,40.9,29.76,SSE,157,0.0,0.0,96,0.06,,,0.33,WUHU21636XXSP,2013-03-20 03:19:00,
2013-03-19 20:20:00,42.1,40.9,29.76,SSE,157,0.0,0.0,96,0.06,,,0.33,WUHU21636XXSP,2013-03-20 03:20:00,
2013-03-19 20:21:00,42.1,40.9,29.76,SSE,157,0.0,0.0,96,0.07,,,0.34,WUHU21636XXSP,2013-03-20 03:21:00,
2013-03-19 20:23:00,42.3,41.1,29.76,SSE,157,0.0,0.0,96,0.07,,,0.34,WUHU21636XXSP,2013-03-20 03:23:00,
2013-03-19 20:24:00,42.3,41.1,29.76,SSE,157,0.0,0.0,96,0.07,,,0.34,WUHU21636XXSP,2013-03-20 03:24:00,
2013-03-19 20:25:00,42.1,40.9,29.76,SSE,157,0.0,0.0,96,0.07,,,0.34,WUHU21636XXSP,2013-03-20 03:25:00,
2013-03-19 20:26:00,42.1,40.9,29.75,SSE,157,0.0,0.0,96,0.07,,,0.34,WUHU21636XXSP,2013-03-20 03:26:00,
2013-03-19 20:28:00,42.1,40.9,29.75,SSE,157,0.0,0.0,96,0.05,,,0.34,WUHU21636XXSP,2013-03-20 03:28:00,
2013-03-19 20:29:00,42.1,40.9,29.75,SSE,157,0.0,0.0,96,0.05,,,0.34,WUHU21636XXSP,2013-03-20 03:29:00,
2013-03-19 20:30:00,42.1,40.9,29.75,SSE,157,0.0,0.0,96,0.05,,,0.34,WUHU21636XXSP,2013-03-20 03:30:00,
2013-03-19 20:32:00,42.1,40.9,29.75,SSE,157,0.0,0.0,96,0.08,,,0.37,WUHU21636XXSP,2013-03-20 03:32:00,
2013-03-19 20:34:00,41.9,40.7,29.75,SSE,157,0.0,0.0,96,0.08,,,0.37,WUHU21636XXSP,2013-03-20 03:34:00,
2013-03-19 20:35:00,41.9,40.7,29.75,SSE,157,0.0,0.0,96,0.08,,,0.37,WUHU21636XXSP,2013-03-20 03:35:00,
2013-03-19 20:38:00,41.9,40.7,29.74,SSE,157,0.0,0.0,96,0.08,,,0.37,WUHU21636XXSP,2013-03-20 03:38:00,
2013-03-19 20:39:00,41.9,40.7,29.74,SSE,157,0.0,0.0,96,0.08,,,0.37,WUHU21636XXSP,2013-03-20 03:39:00,
2013-03-19 20:40:00,41.9,40.7,29.74,SSE,157,0.0,0.0,96,0.08,,,0.37,WUHU21636XXSP,2013-03-20 03:40:00,
2013-03-19 20:41:00,41.7,40.5,29.74,SSE,157,0.0,0.0,96,0.08,,,0.37,WUHU21636XXSP,2013-03-20 03:41:00,
2013-03-19 20:43:00,41.7,40.5,29.74,SSE,157,0.0,0.0,96,0.10,,,0.39,WUHU21636XXSP,2013-03-20 03:43:00,
2013-03-19 20:45:00,41.7,40.5,29.73,SSE,157,0.0,0.0,96,0.10,,,0.39,WUHU21636XXSP,2013-03-20 03:45:00,
2013-03-19 20:47:00,41.7,40.5,29.73,SSE,157,0.0,0.0,96,0.10,,,0.39,WUHU21636XXSP,2013-03-20 03:47:00,
2013-03-19 20:48:00,41.7,40.5,29.73,SSE,157,0.0,0.0,96,0.08,,,0.39,WUHU21636XXSP,2013-03-20 03:48:00,
2013-03-19 20:50:00,41.7,40.5,29.73,SSE,157,0.0,0.0,96,0.08,,,0.39,WUHU21636XXSP,2013-03-20 03:50:00,
2013-03-19 20:52:00,41.5,40.3,29.73,SSE,157,0.0,0.0,96,0.08,,,0.39,WUHU21636XXSP,2013-03-20 03:52:00,
2013-03-19 20:54:00,41.5,40.3,29.73,SSE,157,0.6,0.6,96,0.08,,,0.39,WUHU21636XXSP,2013-03-20 03:54:00,
2013-03-19 20:55:00,41.5,40.3,29.72,SSE,157,0.6,0.6,96,0.08,,,0.39,WUHU21636XXSP,2013-03-20 03:55:00,
2013-03-19 20:57:00,41.5,40.3,29.72,SSE,157,0.0,0.6,96,0.08,,,0.39,WUHU21636XXSP,2013-03-20 03:57:00,
2013-03-19 20:59:00,41.5,40.3,29.72,SSE,157,0.0,0.6,96,0.08,,,0.39,WUHU21636XXSP,2013-03-20 03:59:00,
2013-03-19 21:00:00,41.5,40.3,29.72,SSE,157,0.0,0.6,96,0.08,,,0.39,WUHU21636XXSP,2013-03-20 04:00:00,
2013-03-19 21:01:00,41.5,40.3,29.72,SSE,157,0.0,0.6,96,0.08,,,0.39,WUHU21636XXSP,2013-03-20 04:01:00,
2013-03-19 21:05:00,41.5,40.3,29.72,SSE,157,0.0,0.6,96,0.10,,,0.41,WUHU21636XXSP,2013-03-20 04:05:00,
2013-03-19 21:06:00,41.5,40.3,29.72,SSE,157,0.0,0.0,96,0.10,,,0.41,WUHU21636XXSP,2013-03-20 04:06:00,
2013-03-19 21:10:00,41.5,40.3,29.72,SSE,157,0.0,0.0,96,0.08,,,0.41,WUHU21636XXSP,2013-03-20 04:10:00,
2013-03-19 21:11:00,41.5,40.3,29.72,SSE,157,0.0,0.0,96,0.08,,,0.41,WUHU21636XXSP,2013-03-20 04:11:00,
2013-03-19 21:15:00,41.7,40.5,29.72,South,180,4.0,4.0,96,0.08,,,0.41,WUHU21636XXSP,2013-03-20 04:15:00,
2013-03-19 21:16:00,41.7,40.5,29.72,South,180,4.0,4.0,96,0.08,,,0.41,WUHU21636XXSP,2013-03-20 04:16:00,
2013-03-19 21:20:00,41.7,40.5,29.71,SSW,202,0.0,4.0,96,0.08,,,0.41,WUHU21636XXSP,2013-03-20 04:20:00,
2013-03-19 21:21:00,41.7,40.5,29.71,SSW,202,0.0,4.0,96,0.07,,,0.41,WUHU21636XXSP,2013-03-20 04:21:00,
2013-03-19 21:22:00,41.7,40.5,29.71,SSW,202,0.0,4.0,96,0.07,,,0.41,WUHU21636XXSP,2013-03-20 04:22:00,
2013-03-19 21:25:00,41.7,40.5,29.71,SSW,202,0.0,0.0,96,0.09,,,0.43,WUHU21636XXSP,2013-03-20 04:25:00,
2013-03-19 21:26:00,41.7,40.5,29.71,SSW,202,0.0,0.0,96,0.09,,,0.43,WUHU21636XXSP,2013-03-20 04:26:00,
2013-03-19 21:27:00,41.7,40.5,29.71,SSW,202,0.0,0.0,96,0.09,,,0.43,WUHU21636XXSP,2013-03-20 04:27:00,
2013-03-19 21:31:00,41.5,40.3,29.70,SSW,202,0.6,0.6,96,0.09,,,0.43,WUHU21636XXSP,2013-03-20 04:31:00,
2013-03-19 21:32:00,41.5,40.3,29.70,SSW,202,0.0,0.6,96,0.06,,,0.43,WUHU21636XXSP,2013-03-20 04:32:00,
2013-03-19 21:36:00,41.5,40.3,29.70,SW,225,0.0,0.6,96,0.06,,,0.43,WUHU21636XXSP,2013-03-20 04:36:00,
2013-03-19 21:37:00,41.5,40.6,29.70,SW,225,0.0,0.6,97,0.08,,,0.45,WUHU21636XXSP,2013-03-20 04:37:00,
2013-03-19 21:42:00,41.5,40.6,29.70,SW,225,0.0,0.0,97,0.08,,,0.45,WUHU21636XXSP,2013-03-20 04:42:00,
2013-03-19 21:47:00,41.5,40.6,29.70,SW,225,0.0,0.0,97,0.06,,,0.45,WUHU21636XXSP,2013-03-20 04:47:00,
2013-03-19 21:52:00,41.5,40.6,29.69,SSW,202,0.0,0.0,97,0.08,,,0.47,WUHU21636XXSP,2013-03-20 04:52:00,
2013-03-19 21:57:00,41.5,40.6,29.69,SSW,202,0.0,0.0,97,0.08,,,0.47,WUHU21636XXSP,2013-03-20 04:57:00,
2013-03-19 22:02:00,41.5,40.6,29.68,SSW,202,0.0,0.0,97,0.10,,,0.49,WUHU21636XXSP,2013-03-20 05:02:00,
2013-03-19 22:03:00,41.5,40.6,29.68,SSW,202,0.0,0.0,97,0.10,,,0.49,WUHU21636XXSP,2013-03-20 05:03:00,
2013-03-19 22:07:00,41.5,40.6,29.68,SSW,202,0.0,0.0,97,0.08,,,0.49,WUHU21636XXSP,2013-03-20 05:07:00,
2013-03-19 22:08:00,41.5,40.6,29.68,SSW,202,0.0,0.0,97,0.08,,,0.49,WUHU21636XXSP,2013-03-20 05:08:00,
2013-03-19 22:13:00,41.5,40.6,29.67,SSW,202,0.0,0.0,97,0.10,,,0.51,WUHU21636XXSP,2013-03-20 05:13:00,
2013-03-19 22:18:00,41.5,40.6,29.67,SSW,202,0.0,0.0,97,0.10,,,0.51,WUHU21636XXSP,2013-03-20 05:18:00,
2013-03-19 22:23:00,41.5,40.6,29.67,SSW,202,0.0,0.0,97,0.12,,,0.53,WUHU21636XXSP,2013-03-20 05:23:00,
2013-03-19 22:24:00,41.5,40.6,29.67,SSW,202,0.0,0.0,97,0.12,,,0.53,WUHU21636XXSP,2013-03-20 05:24:00,
2013-03-19 22:28:00,41.5,40.6,29.66,South,180,0.0,0.0,97,0.10,,,0.53,WUHU21636XXSP,2013-03-20 05:28:00,
2013-03-19 22:29:00,41.5,40.6,29.66,South,180,0.0,0.0,97,0.10,,,0.53,WUHU21636XXSP,2013-03-20 05:29:00,
2013-03-19 22:33:00,41.4,40.5,29.67,South,180,0.0,0.0,97,0.12,,,0.55,WUHU21636XXSP,2013-03-20 05:33:00,
2013-03-19 22:34:00,41.4,40.5,29.67,South,180,0.0,0.0,97,0.12,,,0.55,WUHU21636XXSP,2013-03-20 05:34:00,
2013-03-19 22:38:00,41.4,40.5,29.66,South,180,0.0,0.0,97,0.10,,,0.55,WUHU21636XXSP,2013-03-20 05:38:00,
2013-03-19 22:39:00,41.4,40.5,29.66,South,180,0.0,0.0,97,0.10,,,0.55,WUHU21636XXSP,2013-03-20 05:39:00,
2013-03-19 22:43:00,41.4,40.5,29.66,South,180,0.0,0.0,97,0.12,,,0.57,WUHU21636XXSP,2013-03-20 05:43:00,
2013-03-19 22:44:00,41.4,40.5,29.66,South,180,0.0,0.0,97,0.12,,,0.57,WUHU21636XXSP,2013-03-20 05:44:00,
2013-03-19 22:45:00,41.4,40.5,29.66,South,180,0.0,0.0,97,0.12,,,0.57,WUHU21636XXSP,2013-03-20 05:45:00,
2013-03-19 22:49:00,41.4,40.5,29.66,South,180,0.0,0.0,97,0.10,,,0.57,WUHU21636XXSP,2013-03-20 05:49:00,
2013-03-19 22:50:00,41.4,40.5,29.65,South,180,0.0,0.0,97,0.10,,,0.57,WUHU21636XXSP,2013-03-20 05:50:00,
2013-03-19 22:54:00,41.5,40.6,29.65,South,180,0.0,0.0,97,0.12,,,0.59,WUHU21636XXSP,2013-03-20 05:54:00,
2013-03-19 22:55:00,41.5,40.6,29.65,South,180,0.0,0.0,97,0.12,,,0.59,WUHU21636XXSP,2013-03-20 05:55:00,
2013-03-19 22:59:00,41.4,40.5,29.65,South,180,0.0,0.0,97,0.10,,,0.59,WUHU21636XXSP,2013-03-20 05:59:00,
2013-03-19 23:00:00,41.4,40.5,29.65,South,180,0.0,0.0,97,0.10,,,0.59,WUHU21636XXSP,2013-03-20 06:00:00,
2013-03-19 23:04:00,41.5,40.6,29.64,South,180,0.0,0.0,97,0.14,,,0.63,WUHU21636XXSP,2013-03-20 06:04:00,
2013-03-19 23:05:00,41.5,40.6,29.64,South,180,0.0,0.0,97,0.14,,,0.63,WUHU21636XXSP,2013-03-20 06:05:00,
2013-03-19 23:09:00,41.5,40.6,29.64,South,180,0.4,0.4,97,0.12,,,0.63,WUHU21636XXSP,2013-03-20 06:09:00,
2013-03-19 23:10:00,41.5,40.6,29.64,South,180,0.4,0.4,97,0.12,,,0.63,WUHU21636XXSP,2013-03-20 06:10:00,
2013-03-19 23:14:00,41.5,40.6,29.63,South,180,0.0,0.4,97,0.14,,,0.65,WUHU21636XXSP,2013-03-20 06:14:00,
2013-03-19 23:15:00,41.5,40.6,29.63,South,180,0.0,0.4,97,0.14,,,0.65,WUHU21636XXSP,2013-03-20 06:15:00,
2013-03-19 23:19:00,41.4,40.5,29.63,South,180,0.0,0.0,97,0.14,,,0.65,WUHU21636XXSP,2013-03-20 06:19:00,
2013-03-19 23:20:00,41.4,40.5,29.63,South,180,0.0,0.0,97,0.12,,,0.65,WUHU21636XXSP,2013-03-20 06:20:00,
2013-03-19 23:24:00,41.4,40.5,29.62,South,180,0.0,0.0,97,0.12,,,0.65,WUHU21636XXSP,2013-03-20 06:24:00,
2013-03-19 23:25:00,41.4,40.5,29.62,South,180,0.0,0.0,97,0.12,,,0.65,WUHU21636XXSP,2013-03-20 06:25:00,
2013-03-19 23:30:00,41.4,40.5,29.62,South,180,0.0,0.0,97,0.12,,,0.65,WUHU21636XXSP,2013-03-20 06:30:00,
2013-03-19 23:35:00,41.4,40.5,29.62,SSW,202,2.4,2.4,97,0.12,,,0.67,WUHU21636XXSP,2013-03-20 06:35:00,
2013-03-19 23:36:00,41.4,40.5,29.62,SSW,202,2.4,2.4,97,0.12,,,0.67,WUHU21636XXSP,2013-03-20 06:36:00,
2013-03-19 23:40:00,41.2,40.3,29.62,SSE,157,0.0,2.4,97,0.12,,,0.67,WUHU21636XXSP,2013-03-20 06:40:00,
2013-03-19 23:41:00,41.2,40.3,29.62,SSE,157,0.0,2.4,97,0.12,,,0.67,WUHU21636XXSP,2013-03-20 06:41:00,
2013-03-19 23:45:00,41.4,40.5,29.62,South,171,0.5,2.4,97,0.10,,,0.67,WUHU21636XXSP,2013-03-20 06:45:00,
2013-03-19 23:46:00,41.2,40.3,29.61,South,180,0.4,2.4,97,0.13,,,0.70,WUHU21636XXSP,2013-03-20 06:46:00,
2013-03-19 23:50:00,41.2,40.3,29.62,SSE,157,2.2,2.2,97,0.13,,,0.70,WUHU21636XXSP,2013-03-20 06:50:00,
2013-03-19 23:51:00,41.2,40.3,29.61,SSE,157,2.2,2.2,97,0.13,,,0.70,WUHU21636XXSP,2013-03-20 06:51:00,
2013-03-19 23:55:00,41.2,40.3,29.61,SSE,157,0.0,2.2,97,0.11,,,0.70,WUHU21636XXSP,2013-03-20 06:55:00,
2013-03-19 23:57:00,41.2,40.3,29.61,SSE,157,2.4,2.4,97,0.12,,,0.71,WUHU21636XXSP,2013-03-20 06:57:00,